Wetterdaten: Sonntag, 24.08.2014
Datum Zeit Temp. Aussen +5cm Feuchte Auss Luftdruck Regen Sonnenschein Regendauer UV Solar Windben
24.08.2014 00:00 10,6 C 9,4 C 92 % 1015,5 hPa 0,0 l/m 0 min 0 min 0,0 UV-I 0 W/m 10,7 km/h (2 Bft)
24.08.2014 00:02 10,6 C 9,4 C 92 % 1015,5 hPa 0,0 l/m 0 min 0 min 0,0 UV-I 0 W/m 3,5 km/h (1 Bft)
24.08.2014 00:06 10,6 C 9,4 C 92 % 1015,5 hPa 0,0 l/m 0 min 0 min 0,0 UV-I 0 W/m 10,7 km/h (2 Bft)
24.08.2014 00:08 10,6 C 9,4 C 92 % 1015,5 hPa 0,0 l/m 0 min 0 min 0,0 UV-I 0 W/m 14,2 km/h (3 Bft)
24.08.2014 00:10 10,6 C 9,4 C 92 % 1015,5 hPa 0,0 l/m 0 min 0 min 0,0 UV-I 0 W/m 14,2 km/h (3 Bft)
24.08.2014 00:12 10,6 C 9,4 C 92 % 1015,5 hPa 0,0 l/m 0 min 0 min 0,0 UV-I 0 W/m 17,7 km/h (3 Bft)
24.08.2014 00:14 10,6 C 9,4 C 92 % 1015,6 hPa 0,0 l/m 0 min 0 min 0,0 UV-I 0 W/m 21,3 km/h (4 Bft)
24.08.2014 00:16 10,6 C 9,4 C 92 % 1015,5 hPa 0,0 l/m 0 min 0 min 0,0 UV-I 0 W/m 14,2 km/h (3 Bft)
24.08.2014 00:18 10,5 C 9,4 C 92 % 1015,6 hPa 0,0 l/m 0 min 0 min 0,0 UV-I 0 W/m 17,7 km/h (3 Bft)
24.08.2014 00:20 10,6 C 9,4 C 92 % 1015,6 hPa 0,0 l/m 0 min 0 min 0,0 UV-I 0 W/m 17,7 km/h (3 Bft)
24.08.2014 00:22 10,5 C 9,4 C 92 % 1015,6 hPa 0,0 l/m 0 min 0 min 0,0 UV-I 0 W/m 10,7 km/h (2 Bft)
24.08.2014 00:24 10,5 C 9,4 C 92 % 1015,7 hPa 0,0 l/m 0 min 0 min 0,0 UV-I 0 W/m 14,2 km/h (3 Bft)
24.08.2014 00:26 10,5 C 9,4 C 92 % 1015,7 hPa 0,0 l/m 0 min 0 min 0,0 UV-I 0 W/m 10,7 km/h (2 Bft)
24.08.2014 00:28 10,4 C 9,4 C 92 % 1015,7 hPa 0,0 l/m 0 min 0 min 0,0 UV-I 0 W/m 14,2 km/h (3 Bft)
24.08.2014 00:30 10,4 C 9,4 C 92 % 1015,7 hPa 0,0 l/m 0 min 0 min 0,0 UV-I 0 W/m 14,2 km/h (3 Bft)
24.08.2014 00:32 10,4 C 9,4 C 92 % 1015,8 hPa 0,0 l/m 0 min 0 min 0,0 UV-I 0 W/m 24,7 km/h (4 Bft)
24.08.2014 00:34 10,4 C 9,4 C 93 % 1015,9 hPa 0,0 l/m 0 min 0 min 0,0 UV-I 0 W/m 38,9 km/h (6 Bft)
24.08.2014 00:36 10,4 C 9,4 C 93 % 1015,9 hPa 0,0 l/m 0 min 0 min 0,0 UV-I 0 W/m 42,4 km/h (6 Bft)
24.08.2014 00:38 10,4 C 9,4 C 93 % 1015,9 hPa 0,0 l/m 0 min 0 min 0,0 UV-I 0 W/m 35,4 km/h (5 Bft)
24.08.2014 00:40 10,5 C 10,0 C 92 % 1015,9 hPa 0,0 l/m 0 min 0 min 0,0 UV-I 0 W/m 46,0 km/h (6 Bft)
24.08.2014 00:42 10,6 C 10,0 C 92 % 1015,9 hPa 0,0 l/m 0 min 0 min 0,0 UV-I 0 W/m 24,7 km/h (4 Bft)
24.08.2014 00:44 10,6 C 9,4 C 92 % 1015,9 hPa 0,0 l/m 0 min 0 min 0,0 UV-I 0 W/m 24,7 km/h (4 Bft)
24.08.2014 00:46 10,7 C 10,0 C 91 % 1015,9 hPa 0,0 l/m 0 min 0 min 0,0 UV-I 0 W/m 21,3 km/h (4 Bft)
24.08.2014 00:48 10,7 C 10,0 C 91 % 1015,9 hPa 0,0 l/m 0 min 0 min 0,0 UV-I 0 W/m 28,2 km/h (4 Bft)
24.08.2014 00:50 10,7 C 10,0 C 91 % 1015,9 hPa 0,0 l/m 0 min 0 min 0,0 UV-I 0 W/m 21,3 km/h (4 Bft)
24.08.2014 00:52 10,7 C 9,4 C 90 % 1015,9 hPa 0,0 l/m 0 min 0 min 0,0 UV-I 0 W/m 24,7 km/h (4 Bft)
24.08.2014 00:54 10,7 C 9,4 C 90 % 1015,9 hPa 0,0 l/m 0 min 0 min 0,0 UV-I 0 W/m 21,3 km/h (4 Bft)
24.08.2014 00:56 10,7 C 9,4 C 90 % 1016,0 hPa 0,0 l/m 0 min 0 min 0,0 UV-I 0 W/m 17,7 km/h (3 Bft)
24.08.2014 00:58 10,7 C 9,4 C 90 % 1015,9 hPa 0,0 l/m 0 min 0 min 0,0 UV-I 0 W/m 21,3 km/h (4 Bft)
24.08.2014 01:00 10,7 C 9,4 C 90 % 1015,8 hPa 0,0 l/m 0 min 0 min 0,0 UV-I 0 W/m 24,7 km/h (4 Bft)
24.08.2014 01:02 10,6 C 9,4 C 90 % 1015,7 hPa 0,0 l/m 0 min 0 min 0,0 UV-I 0 W/m 21,3 km/h (4 Bft)
24.08.2014 01:04 10,6 C 9,4 C 90 % 1015,7 hPa 0,0 l/m 0 min 0 min 0,0 UV-I 0 W/m 14,2 km/h (3 Bft)
24.08.2014 01:06 10,7 C 9,4 C 90 % 1015,7 hPa 0,0 l/m 0 min 0 min 0,0 UV-I 0 W/m 17,7 km/h (3 Bft)
24.08.2014 01:08 10,6 C 10,0 C 90 % 1015,7 hPa 0,0 l/m 0 min 0 min 0,0 UV-I 0 W/m 17,7 km/h (3 Bft)
24.08.2014 01:10 10,7 C 10,0 C 90 % 1015,7 hPa 0,0 l/m 0 min 0 min 0,0 UV-I 0 W/m 17,7 km/h (3 Bft)
24.08.2014 01:12 10,7 C 10,0 C 89 % 1015,7 hPa 0,0 l/m 0 min 2 min 0,0 UV-I 0 W/m 0,0 km/h (0 Bft)
24.08.2014 01:14 10,7 C 10,0 C 89 % 1015,7 hPa 0,0 l/m 0 min 2 min 0,0 UV-I 0 W/m 0,0 km/h (0 Bft)
24.08.2014 01:16 10,7 C 9,4 C 89 % 1015,7 hPa 0,0 l/m 0 min 2 min 0,0 UV-I 0 W/m 10,7 km/h (2 Bft)
24.08.2014 01:18 10,7 C 9,4 C 89 % 1015,6 hPa 0,0 l/m 0 min 2 min 0,0 UV-I 0 W/m 0,0 km/h (0 Bft)
24.08.2014 01:20 10,7 C 9,4 C 89 % 1015,5 hPa 0,0 l/m 0 min 2 min 0,0 UV-I 0 W/m 14,2 km/h (3 Bft)
24.08.2014 01:22 10,7 C 9,4 C 89 % 1015,5 hPa 0,0 l/m 0 min 2 min 0,0 UV-I 0 W/m 10,7 km/h (2 Bft)
24.08.2014 01:24 10,7 C 9,4 C 90 % 1015,6 hPa 0,0 l/m 0 min 2 min 0,0 UV-I 0 W/m 14,2 km/h (3 Bft)
24.08.2014 01:26 10,7 C 9,4 C 90 % 1015,5 hPa 0,0 l/m 0 min 0 min 0,0 UV-I 0 W/m 0,0 km/h (0 Bft)
24.08.2014 01:28 10,7 C 9,4 C 90 % 1015,4 hPa 0,0 l/m 0 min 0 min 0,0 UV-I 0 W/m 0,0 km/h (0 Bft)
24.08.2014 01:30 10,7 C 9,4 C 90 % 1015,5 hPa 0,0 l/m 0 min 0 min 0,0 UV-I 0 W/m 0,0 km/h (0 Bft)
24.08.2014 01:32 10,7 C 9,4 C 90 % 1015,6 hPa 0,0 l/m 0 min 0 min 0,0 UV-I 0 W/m 0,0 km/h (0 Bft)
24.08.2014 01:34 10,7 C 9,4 C 90 % 1015,6 hPa 0,0 l/m 0 min 0 min 0,0 UV-I 0 W/m 3,5 km/h (1 Bft)
24.08.2014 01:36 10,7 C 9,4 C 90 % 1015,7 hPa 0,0 l/m 0 min 0 min 0,0 UV-I 0 W/m 3,5 km/h (1 Bft)
24.08.2014 01:38 10,7 C 9,4 C 90 % 1015,7 hPa 0,0 l/m 0 min 0 min 0,0 UV-I 0 W/m 0,0 km/h (0 Bft)
24.08.2014 01:40 10,7 C 9,4 C 90 % 1015,7 hPa 0,0 l/m 0 min 0 min 0,0 UV-I 0 W/m 0,0 km/h (0 Bft)
24.08.2014 01:42 10,7 C 9,4 C 91 % 1015,7 hPa 0,0 l/m 0 min 0 min 0,0 UV-I 0 W/m 0,0 km/h (0 Bft)
24.08.2014 01:44 10,6 C 9,4 C 91 % 1015,7 hPa 0,0 l/m 0 min 0 min 0,0 UV-I 0 W/m 0,0 km/h (0 Bft)
24.08.2014 01:46 10,6 C 9,4 C 91 % 1015,7 hPa 0,0 l/m 0 min 0 min 0,0 UV-I 0 W/m 0,0 km/h (0 Bft)
24.08.2014 01:48 10,6 C 9,4 C 91 % 1015,7 hPa 0,0 l/m 0 min 0 min 0,0 UV-I 0 W/m 0,0 km/h (0 Bft)
24.08.2014 01:50 10,6 C 9,4 C 91 % 1015,7 hPa 0,0 l/m 0 min 0 min 0,0 UV-I 0 W/m 7,1 km/h (2 Bft)
24.08.2014 01:52 10,6 C 9,4 C 91 % 1015,7 hPa 0,0 l/m 0 min 0 min 0,0 UV-I 0 W/m 0,0 km/h (0 Bft)
24.08.2014 01:54 10,6 C 9,4 C 91 % 1015,7 hPa 0,0 l/m 0 min 0 min 0,0 UV-I 0 W/m 0,0 km/h (0 Bft)
24.08.2014 01:56 10,6 C 9,4 C 91 % 1015,7 hPa 0,0 l/m 0 min 0 min 0,0 UV-I 0 W/m 0,0 km/h (0 Bft)
24.08.2014 01:58 10,6 C 9,4 C 91 % 1015,7 hPa 0,0 l/m 0 min 0 min 0,0 UV-I 0 W/m 3,5 km/h (1 Bft)
24.08.2014 02:00 10,6 C 9,4 C 92 % 1015,8 hPa 0,0 l/m 0 min 0 min 0,0 UV-I 0 W/m 14,2 km/h (3 Bft)
24.08.2014 02:02 10,6 C 9,4 C 92 % 1015,8 hPa 0,0 l/m 0 min 0 min 0,0 UV-I 0 W/m 3,5 km/h (1 Bft)
24.08.2014 02:04 10,6 C 9,4 C 92 % 1015,8 hPa 0,0 l/m 0 min 0 min 0,0 UV-I 0 W/m 14,2 km/h (3 Bft)
24.08.2014 02:06 10,6 C 9,4 C 92 % 1015,7 hPa 0,0 l/m 0 min 0 min 0,0 UV-I 0 W/m 14,2 km/h (3 Bft)
24.08.2014 02:08 10,6 C 9,4 C 92 % 1015,8 hPa 0,0 l/m 0 min 0 min 0,0 UV-I 0 W/m 3,5 km/h (1 Bft)
24.08.2014 02:10 10,6 C 9,4 C 92 % 1015,8 hPa 0,0 l/m 0 min 0 min 0,0 UV-I 0 W/m 10,7 km/h (2 Bft)
24.08.2014 02:12 10,6 C 9,4 C 92 % 1015,8 hPa 0,0 l/m 0 min 0 min 0,0 UV-I 0 W/m 3,5 km/h (1 Bft)
24.08.2014 02:14 10,6 C 9,4 C 92 % 1015,8 hPa 0,0 l/m 0 min 0 min 0,0 UV-I 0 W/m 0,0 km/h (0 Bft)
24.08.2014 02:16 10,6 C 9,4 C 92 % 1015,8 hPa 0,0 l/m 0 min 0 min 0,0 UV-I 0 W/m 3,5 km/h (1 Bft)
24.08.2014 02:18 10,6 C 9,4 C 92 % 1015,9 hPa 0,0 l/m 0 min 0 min 0,0 UV-I 0 W/m 10,7 km/h (2 Bft)
24.08.2014 02:20 10,6 C 9,4 C 92 % 1015,9 hPa 0,0 l/m 0 min 0 min 0,0 UV-I 0 W/m 10,7 km/h (2 Bft)
24.08.2014 02:22 10,5 C 9,4 C 92 % 1015,9 hPa 0,0 l/m 0 min 0 min 0,0 UV-I 0 W/m 14,2 km/h (3 Bft)
24.08.2014 02:24 10,5 C 9,4 C 92 % 1015,9 hPa 0,0 l/m 0 min 0 min 0,0 UV-I 0 W/m 10,7 km/h (2 Bft)
24.08.2014 02:26 10,5 C 9,4 C 91 % 1015,9 hPa 0,0 l/m 0 min 0 min 0,0 UV-I 0 W/m 14,2 km/h (3 Bft)
24.08.2014 02:28 10,5 C 9,4 C 91 % 1015,9 hPa 0,0 l/m 0 min 0 min 0,0 UV-I 0 W/m 14,2 km/h (3 Bft)
24.08.2014 02:30 10,5 C 9,4 C 91 % 1015,9 hPa 0,0 l/m 0 min 0 min 0,0 UV-I 0 W/m 17,7 km/h (3 Bft)
24.08.2014 02:32 10,5 C 9,4 C 91 % 1015,9 hPa 0,0 l/m 0 min 0 min 0,0 UV-I 0 W/m 0,0 km/h (0 Bft)
24.08.2014 02:34 10,4 C 9,4 C 91 % 1016,0 hPa 0,0 l/m 0 min 0 min 0,0 UV-I 0 W/m 14,2 km/h (3 Bft)
24.08.2014 02:36 10,4 C 9,4 C 91 % 1016,0 hPa 0,0 l/m 0 min 0 min 0,0 UV-I 0 W/m 14,2 km/h (3 Bft)
24.08.2014 02:38 10,4 C 9,4 C 91 % 1016,1 hPa 0,0 l/m 0 min 0 min 0,0 UV-I 0 W/m 14,2 km/h (3 Bft)
24.08.2014 02:40 10,4 C 9,4 C 91 % 1016,0 hPa 0,0 l/m 0 min 0 min 0,0 UV-I 0 W/m 10,7 km/h (2 Bft)
24.08.2014 02:42 10,4 C 9,4 C 91 % 1016,1 hPa 0,0 l/m 0 min 0 min 0,0 UV-I 0 W/m 21,3 km/h (4 Bft)
24.08.2014 02:44 10,4 C 9,4 C 91 % 1016,1 hPa 0,0 l/m 0 min 0 min 0,0 UV-I 0 W/m 17,7 km/h (3 Bft)
24.08.2014 02:46 10,4 C 9,4 C 91 % 1016,1 hPa 0,0 l/m 0 min 0 min 0,0 UV-I 0 W/m 10,7 km/h (2 Bft)
24.08.2014 02:48 10,3 C 9,4 C 91 % 1016,2 hPa 0,0 l/m 0 min 0 min 0,0 UV-I 0 W/m 14,2 km/h (3 Bft)
24.08.2014 02:50 10,3 C 9,4 C 91 % 1016,1 hPa 0,0 l/m 0 min 0 min 0,0 UV-I 0 W/m 7,1 km/h (2 Bft)
24.08.2014 02:52 10,3 C 9,4 C 91 % 1016,0 hPa 0,0 l/m 0 min 0 min 0,0 UV-I 0 W/m 17,7 km/h (3 Bft)
24.08.2014 02:54 10,3 C 9,4 C 91 % 1016,1 hPa 0,0 l/m 0 min 0 min 0,0 UV-I 0 W/m 17,7 km/h (3 Bft)
24.08.2014 02:56 10,2 C 9,4 C 91 % 1016,2 hPa 0,0 l/m 0 min 0 min 0,0 UV-I 0 W/m 21,3 km/h (4 Bft)
24.08.2014 02:58 10,2 C 9,4 C 91 % 1016,2 hPa 0,0 l/m 0 min 0 min 0,0 UV-I 0 W/m 14,2 km/h (3 Bft)
24.08.2014 03:00 10,2 C 9,4 C 91 % 1016,2 hPa 0,0 l/m 0 min 0 min 0,0 UV-I 0 W/m 14,2 km/h (3 Bft)
24.08.2014 03:02 10,2 C 9,4 C 91 % 1016,2 hPa 0,0 l/m 0 min 0 min 0,0 UV-I 0 W/m 14,2 km/h (3 Bft)
24.08.2014 03:04 10,1 C 9,4 C 91 % 1016,2 hPa 0,0 l/m 0 min 0 min 0,0 UV-I 0 W/m 21,3 km/h (4 Bft)
24.08.2014 03:06 10,1 C 9,4 C 91 % 1016,3 hPa 0,0 l/m 0 min 0 min 0,0 UV-I 0 W/m 21,3 km/h (4 Bft)
24.08.2014 03:08 10,1 C 9,4 C 91 % 1016,3 hPa 0,0 l/m 0 min 0 min 0,0 UV-I 0 W/m 10,7 km/h (2 Bft)
24.08.2014 03:10 10,0 C 9,4 C 91 % 1016,3 hPa 0,0 l/m 0 min 0 min 0,0 UV-I 0 W/m 10,7 km/h (2 Bft)
24.08.2014 03:12 9,9 C 9,4 C 91 % 1016,3 hPa 0,0 l/m 0 min 0 min 0,0 UV-I 0 W/m 17,7 km/h (3 Bft)
24.08.2014 03:14 9,9 C 9,4 C 91 % 1016,3 hPa 0,0 l/m 0 min 0 min 0,0 UV-I 0 W/m 14,2 km/h (3 Bft)
24.08.2014 03:16 9,9 C 9,4 C 92 % 1016,3 hPa 0,0 l/m 0 min 0 min 0,0 UV-I 0 W/m 17,7 km/h (3 Bft)
24.08.2014 03:18 9,8 C 8,9 C 92 % 1016,4 hPa 0,0 l/m 0 min 0 min 0,0 UV-I 0 W/m 14,2 km/h (3 Bft)
24.08.2014 03:20 9,8 C 8,9 C 92 % 1016,3 hPa 0,0 l/m 0 min 0 min 0,0 UV-I 0 W/m 17,7 km/h (3 Bft)
24.08.2014 03:22 9,8 C 8,9 C 92 % 1016,3 hPa 0,0 l/m 0 min 0 min 0,0 UV-I 0 W/m 10,7 km/h (2 Bft)
24.08.2014 03:24 9,7 C 8,9 C 92 % 1016,3 hPa 0,0 l/m 0 min 0 min 0,0 UV-I 0 W/m 14,2 km/h (3 Bft)
24.08.2014 03:26 9,7 C 8,9 C 92 % 1016,3 hPa 0,0 l/m 0 min 0 min 0,0 UV-I 0 W/m 10,7 km/h (2 Bft)
24.08.2014 03:28 9,6 C 8,9 C 92 % 1016,4 hPa 0,0 l/m 0 min 0 min 0,0 UV-I 0 W/m 10,7 km/h (2 Bft)
24.08.2014 03:30 9,6 C 8,9 C 92 % 1016,4 hPa 0,0 l/m 0 min 0 min 0,0 UV-I 0 W/m 14,2 km/h (3 Bft)
24.08.2014 03:32 9,6 C 8,9 C 92 % 1016,3 hPa 0,0 l/m 0 min 0 min 0,0 UV-I 0 W/m 3,5 km/h (1 Bft)
24.08.2014 03:34 9,5 C 8,9 C 92 % 1016,4 hPa 0,0 l/m 0 min 0 min 0,0 UV-I 0 W/m 17,7 km/h (3 Bft)
24.08.2014 03:36 9,4 C 8,9 C 92 % 1016,4 hPa 0,0 l/m 0 min 0 min 0,0 UV-I 0 W/m 10,7 km/h (2 Bft)
24.08.2014 03:38 9,4 C 8,3 C 92 % 1016,4 hPa 0,0 l/m 0 min 0 min 0,0 UV-I 0 W/m 7,1 km/h (2 Bft)
24.08.2014 03:40 9,3 C 8,3 C 92 % 1016,4 hPa 0,0 l/m 0 min 0 min 0,0 UV-I 0 W/m 14,2 km/h (3 Bft)
24.08.2014 03:42 9,3 C 8,3 C 92 % 1016,3 hPa 0,0 l/m 0 min 0 min 0,0 UV-I 0 W/m 17,7 km/h (3 Bft)
24.08.2014 03:44 9,3 C 8,3 C 92 % 1016,4 hPa 0,0 l/m 0 min 0 min 0,0 UV-I 0 W/m 17,7 km/h (3 Bft)
24.08.2014 03:46 9,2 C 8,9 C 92 % 1016,4 hPa 0,0 l/m 0 min 0 min 0,0 UV-I 0 W/m 21,3 km/h (4 Bft)
24.08.2014 03:48 9,2 C 8,9 C 93 % 1016,4 hPa 0,0 l/m 0 min 0 min 0,0 UV-I 0 W/m 17,7 km/h (3 Bft)
24.08.2014 03:50 9,2 C 8,9 C 93 % 1016,4 hPa 0,0 l/m 0 min 0 min 0,0 UV-I 0 W/m 10,7 km/h (2 Bft)
24.08.2014 03:52 9,2 C 8,3 C 92 % 1016,4 hPa 0,0 l/m 0 min 0 min 0,0 UV-I 0 W/m 10,7 km/h (2 Bft)
24.08.2014 03:54 9,2 C 8,3 C 92 % 1016,4 hPa 0,0 l/m 0 min 0 min 0,0 UV-I 0 W/m 0,0 km/h (0 Bft)
24.08.2014 03:56 9,1 C 8,3 C 92 % 1016,4 hPa 0,0 l/m 0 min 0 min 0,0 UV-I 0 W/m 0,0 km/h (0 Bft)
24.08.2014 03:58 9,1 C 8,3 C 93 % 1016,4 hPa 0,0 l/m 0 min 0 min 0,0 UV-I 0 W/m 21,3 km/h (4 Bft)
24.08.2014 04:00 9,0 C 8,3 C 93 % 1016,4 hPa 0,0 l/m 0 min 0 min 0,0 UV-I 0 W/m 14,2 km/h (3 Bft)
24.08.2014 04:05 9,0 C 8,3 C 93 % 1016,5 hPa 0,0 l/m 0 min 0 min 0,0 UV-I 0 W/m 21,3 km/h (4 Bft)
24.08.2014 04:06 9,0 C 8,3 C 93 % 1016,5 hPa 0,0 l/m 0 min 0 min 0,0 UV-I 0 W/m 17,7 km/h (3 Bft)
24.08.2014 04:08 8,9 C 8,3 C 93 % 1016,3 hPa 0,0 l/m 0 min 0 min 0,0 UV-I 0 W/m 14,2 km/h (3 Bft)
24.08.2014 04:10 8,9 C 8,3 C 93 % 1016,3 hPa 0,0 l/m 0 min 0 min 0,0 UV-I 0 W/m 17,7 km/h (3 Bft)
24.08.2014 04:12 8,9 C 8,3 C 93 % 1016,3 hPa 0,0 l/m 0 min 0 min 0,0 UV-I 0 W/m 10,7 km/h (2 Bft)
24.08.2014 04:14 8,9 C 8,3 C 93 % 1016,3 hPa 0,0 l/m 0 min 0 min 0,0 UV-I 0 W/m 14,2 km/h (3 Bft)
24.08.2014 04:16 8,9 C 8,3 C 93 % 1016,3 hPa 0,0 l/m 0 min 0 min 0,0 UV-I 0 W/m 0,0 km/h (0 Bft)
24.08.2014 04:18 8,9 C 8,3 C 93 % 1016,3 hPa 0,0 l/m 0 min 0 min 0,0 UV-I 0 W/m 0,0 km/h (0 Bft)
24.08.2014 04:20 8,9 C 8,3 C 93 % 1016,4 hPa 0,0 l/m 0 min 0 min 0,0 UV-I 0 W/m 14,2 km/h (3 Bft)
24.08.2014 04:22 8,9 C 8,3 C 93 % 1016,3 hPa 0,0 l/m 0 min 0 min 0,0 UV-I 0 W/m 14,2 km/h (3 Bft)
24.08.2014 04:24 8,9 C 8,3 C 93 % 1016,4 hPa 0,0 l/m 0 min 0 min 0,0 UV-I 0 W/m 14,2 km/h (3 Bft)
24.08.2014 04:26 8,9 C 8,3 C 93 % 1016,4 hPa 0,0 l/m 0 min 0 min 0,0 UV-I 0 W/m 21,3 km/h (4 Bft)
24.08.2014 04:28 8,9 C 8,3 C 93 % 1016,4 hPa 0,0 l/m 0 min 0 min 0,0 UV-I 0 W/m 14,2 km/h (3 Bft)
24.08.2014 04:30 8,9 C 8,3 C 93 % 1016,4 hPa 0,0 l/m 0 min 0 min 0,0 UV-I 0 W/m 14,2 km/h (3 Bft)
24.08.2014 04:32 8,9 C 8,3 C 93 % 1016,4 hPa 0,0 l/m 0 min 0 min 0,0 UV-I 0 W/m 14,2 km/h (3 Bft)
24.08.2014 04:34 8,9 C 8,3 C 93 % 1016,4 hPa 0,0 l/m 0 min 0 min 0,0 UV-I 0 W/m 21,3 km/h (4 Bft)
24.08.2014 04:36 8,9 C 8,3 C 93 % 1016,3 hPa 0,0 l/m 0 min 0 min 0,0 UV-I 0 W/m 17,7 km/h (3 Bft)
24.08.2014 04:38 8,9 C 8,3 C 93 % 1016,4 hPa 0,0 l/m 0 min 0 min 0,0 UV-I 0 W/m 14,2 km/h (3 Bft)
24.08.2014 04:40 8,9 C 8,3 C 93 % 1016,4 hPa 0,0 l/m 0 min 0 min 0,0 UV-I 0 W/m 17,7 km/h (3 Bft)
24.08.2014 04:42 8,9 C 8,3 C 93 % 1016,4 hPa 0,0 l/m 0 min 0 min 0,0 UV-I 0 W/m 21,3 km/h (4 Bft)
24.08.2014 04:44 8,9 C 8,3 C 93 % 1016,5 hPa 0,0 l/m 0 min 0 min 0,0 UV-I 0 W/m 14,2 km/h (3 Bft)
24.08.2014 04:46 8,9 C 8,3 C 93 % 1016,5 hPa 0,0 l/m 0 min 0 min 0,0 UV-I 0 W/m 14,2 km/h (3 Bft)
24.08.2014 04:48 8,9 C 8,3 C 93 % 1016,5 hPa 0,0 l/m 0 min 0 min 0,0 UV-I 0 W/m 17,7 km/h (3 Bft)
24.08.2014 04:50 8,9 C 8,3 C 93 % 1016,5 hPa 0,0 l/m 0 min 0 min 0,0 UV-I 0 W/m 21,3 km/h (4 Bft)
24.08.2014 04:52 8,9 C 8,3 C 93 % 1016,5 hPa 0,0 l/m 0 min 0 min 0,0 UV-I 0 W/m 24,7 km/h (4 Bft)
24.08.2014 04:54 8,9 C 8,3 C 93 % 1016,5 hPa 0,0 l/m 0 min 0 min 0,0 UV-I 0 W/m 21,3 km/h (4 Bft)
24.08.2014 04:56 8,9 C 8,3 C 93 % 1016,5 hPa 0,0 l/m 0 min 0 min 0,0 UV-I 0 W/m 21,3 km/h (4 Bft)
24.08.2014 04:58 8,9 C 8,3 C 93 % 1016,6 hPa 0,0 l/m 0 min 0 min 0,0 UV-I 0 W/m 17,7 km/h (3 Bft)
24.08.2014 05:00 8,9 C 8,3 C 93 % 1016,5 hPa 0,0 l/m 0 min 0 min 0,0 UV-I 0 W/m 24,7 km/h (4 Bft)
24.08.2014 05:02 8,9 C 8,3 C 93 % 1016,5 hPa 0,0 l/m 0 min 0 min 0,0 UV-I 0 W/m 17,7 km/h (3 Bft)
24.08.2014 05:04 8,9 C 8,3 C 93 % 1016,6 hPa 0,0 l/m 0 min 0 min 0,0 UV-I 0 W/m 24,7 km/h (4 Bft)
24.08.2014 05:06 8,9 C 8,3 C 93 % 1016,5 hPa 0,0 l/m 0 min 0 min 0,0 UV-I 0 W/m 17,7 km/h (3 Bft)
24.08.2014 05:08 8,8 C 8,3 C 93 % 1016,5 hPa 0,0 l/m 0 min 0 min 0,0 UV-I 0 W/m 14,2 km/h (3 Bft)
24.08.2014 05:10 8,8 C 8,3 C 93 % 1016,5 hPa 0,0 l/m 0 min 0 min 0,0 UV-I 0 W/m 21,3 km/h (4 Bft)
24.08.2014 05:12 8,8 C 8,3 C 93 % 1016,5 hPa 0,0 l/m 0 min 0 min 0,0 UV-I 0 W/m 14,2 km/h (3 Bft)
24.08.2014 05:14 8,8 C 7,8 C 93 % 1016,5 hPa 0,0 l/m 0 min 0 min 0,0 UV-I 0 W/m 14,2 km/h (3 Bft)
24.08.2014 05:16 8,7 C 7,8 C 93 % 1016,5 hPa 0,0 l/m 0 min 0 min 0,0 UV-I 0 W/m 14,2 km/h (3 Bft)
24.08.2014 05:18 8,7 C 7,8 C 93 % 1016,6 hPa 0,0 l/m 0 min 0 min 0,0 UV-I 0 W/m 14,2 km/h (3 Bft)
24.08.2014 05:20 8,7 C 7,8 C 93 % 1016,6 hPa 0,0 l/m 0 min 0 min 0,0 UV-I 0 W/m 10,7 km/h (2 Bft)
24.08.2014 05:22 8,7 C 7,8 C 93 % 1016,6 hPa 0,0 l/m 0 min 0 min 0,0 UV-I 0 W/m 10,7 km/h (2 Bft)
24.08.2014 05:24 8,7 C 7,8 C 93 % 1016,6 hPa 0,0 l/m 0 min 0 min 0,0 UV-I 0 W/m 14,2 km/h (3 Bft)
24.08.2014 05:26 8,7 C 7,8 C 94 % 1016,5 hPa 0,0 l/m 0 min 0 min 0,0 UV-I 0 W/m 10,7 km/h (2 Bft)
24.08.2014 05:28 8,7 C 7,8 C 94 % 1016,5 hPa 0,0 l/m 0 min 0 min 0,0 UV-I 0 W/m 10,7 km/h (2 Bft)
24.08.2014 05:30 8,6 C 7,8 C 93 % 1016,5 hPa 0,0 l/m 0 min 0 min 0,0 UV-I 0 W/m 14,2 km/h (3 Bft)
24.08.2014 05:32 8,6 C 7,8 C 93 % 1016,6 hPa 0,0 l/m 0 min 0 min 0,0 UV-I 0 W/m 17,7 km/h (3 Bft)
24.08.2014 05:34 8,7 C 7,8 C 94 % 1016,6 hPa 0,0 l/m 0 min 0 min 0,0 UV-I 0 W/m 14,2 km/h (3 Bft)
24.08.2014 05:36 8,7 C 7,8 C 94 % 1016,6 hPa 0,0 l/m 0 min 0 min 0,0 UV-I 0 W/m 14,2 km/h (3 Bft)
24.08.2014 05:38 8,7 C 7,8 C 94 % 1016,6 hPa 0,0 l/m 0 min 0 min 0,0 UV-I 0 W/m 21,3 km/h (4 Bft)
24.08.2014 05:40 8,7 C 7,8 C 94 % 1016,6 hPa 0,0 l/m 0 min 0 min 0,0 UV-I 0 W/m 21,3 km/h (4 Bft)
24.08.2014 05:42 8,7 C 8,3 C 94 % 1016,6 hPa 0,0 l/m 0 min 0 min 0,0 UV-I 0 W/m 21,3 km/h (4 Bft)
24.08.2014 05:44 8,7 C 7,8 C 94 % 1016,6 hPa 0,0 l/m 0 min 0 min 0,0 UV-I 0 W/m 17,7 km/h (3 Bft)
24.08.2014 05:46 8,7 C 7,8 C 94 % 1016,6 hPa 0,0 l/m 0 min 0 min 0,0 UV-I 0 W/m 21,3 km/h (4 Bft)
24.08.2014 05:48 8,7 C 7,8 C 94 % 1016,6 hPa 0,0 l/m 0 min 0 min 0,0 UV-I 0 W/m 17,7 km/h (3 Bft)
24.08.2014 05:50 8,7 C 7,8 C 94 % 1016,5 hPa 0,0 l/m 0 min 0 min 0,0 UV-I 0 W/m 17,7 km/h (3 Bft)
24.08.2014 05:52 8,7 C 7,8 C 94 % 1016,6 hPa 0,0 l/m 0 min 0 min 0,0 UV-I 0 W/m 14,2 km/h (3 Bft)
24.08.2014 05:54 8,7 C 7,8 C 94 % 1016,7 hPa 0,0 l/m 0 min 0 min 0,0 UV-I 0 W/m 10,7 km/h (2 Bft)
24.08.2014 05:56 8,7 C 7,8 C 94 % 1016,6 hPa 0,0 l/m 0 min 0 min 0,0 UV-I 0 W/m 24,7 km/h (4 Bft)
24.08.2014 05:58 8,7 C 7,8 C 94 % 1016,7 hPa 0,0 l/m 0 min 0 min 0,0 UV-I 0 W/m 17,7 km/h (3 Bft)
24.08.2014 06:00 8,7 C 7,8 C 94 % 1016,7 hPa 0,0 l/m 0 min 0 min 0,0 UV-I 0 W/m 0,0 km/h (0 Bft)
24.08.2014 06:02 8,6 C 7,8 C 94 % 1016,6 hPa 0,0 l/m 0 min 0 min 0,0 UV-I 0 W/m 14,2 km/h (3 Bft)
24.08.2014 06:06 8,6 C 7,8 C 94 % 1016,6 hPa 0,0 l/m 0 min 0 min 0,0 UV-I 0 W/m 17,7 km/h (3 Bft)
24.08.2014 06:08 8,6 C 7,8 C 94 % 1016,6 hPa 0,0 l/m 0 min 0 min 0,0 UV-I 0 W/m 14,2 km/h (3 Bft)
24.08.2014 06:10 8,6 C 7,8 C 94 % 1016,7 hPa 0,0 l/m 0 min 0 min 0,0 UV-I 0 W/m 14,2 km/h (3 Bft)
24.08.2014 06:12 8,6 C 7,8 C 94 % 1016,7 hPa 0,0 l/m 0 min 0 min 0,0 UV-I 0 W/m 0,0 km/h (0 Bft)
24.08.2014 06:14 8,5 C 7,8 C 94 % 1016,7 hPa 0,0 l/m 0 min 0 min 0,0 UV-I 0 W/m 14,2 km/h (3 Bft)
24.08.2014 06:16 8,5 C 7,8 C 94 % 1016,7 hPa 0,0 l/m 0 min 0 min 0,0 UV-I 0 W/m 14,2 km/h (3 Bft)
24.08.2014 06:18 8,4 C 7,8 C 94 % 1016,7 hPa 0,0 l/m 0 min 0 min 0,0 UV-I 0 W/m 10,7 km/h (2 Bft)
24.08.2014 06:20 8,4 C 7,8 C 94 % 1016,7 hPa 0,0 l/m 0 min 0 min 0,0 UV-I 0 W/m 17,7 km/h (3 Bft)
24.08.2014 06:22 8,4 C 7,8 C 94 % 1016,7 hPa 0,0 l/m 0 min 0 min 0,0 UV-I 0 W/m 3,5 km/h (1 Bft)
24.08.2014 06:24 8,4 C 7,8 C 94 % 1016,7 hPa 0,0 l/m 0 min 0 min 0,0 UV-I 0 W/m 0,0 km/h (0 Bft)
24.08.2014 06:26 8,4 C 7,8 C 94 % 1016,8 hPa 0,0 l/m 0 min 0 min 0,0 UV-I 0 W/m 0,0 km/h (0 Bft)
24.08.2014 06:28 8,4 C 7,8 C 94 % 1016,9 hPa 0,0 l/m 0 min 0 min 0,0 UV-I 0 W/m 0,0 km/h (0 Bft)
24.08.2014 06:30 8,4 C 7,8 C 94 % 1016,9 hPa 0,0 l/m 0 min 0 min 0,0 UV-I 0 W/m 0,0 km/h (0 Bft)
24.08.2014 06:32 8,3 C 7,8 C 94 % 1016,9 hPa 0,0 l/m 0 min 0 min 0,0 UV-I 0 W/m 0,0 km/h (0 Bft)
24.08.2014 06:34 8,3 C 7,8 C 94 % 1016,9 hPa 0,0 l/m 0 min 0 min 0,0 UV-I 0 W/m 0,0 km/h (0 Bft)
24.08.2014 06:36 8,3 C 7,8 C 94 % 1017,0 hPa 0,0 l/m 0 min 0 min 0,0 UV-I 0 W/m 10,7 km/h (2 Bft)
24.08.2014 06:38 8,3 C 7,8 C 94 % 1017,0 hPa 0,0 l/m 0 min 0 min 0,0 UV-I 0 W/m 10,7 km/h (2 Bft)
24.08.2014 06:40 8,3 C 7,8 C 94 % 1017,0 hPa 0,0 l/m 0 min 0 min 0,0 UV-I 8 W/m 10,7 km/h (2 Bft)
24.08.2014 06:42 8,3 C 7,8 C 94 % 1017,0 hPa 0,0 l/m 0 min 0 min 0,0 UV-I 9 W/m 17,7 km/h (3 Bft)
24.08.2014 06:44 8,3 C 7,8 C 94 % 1017,1 hPa 0,0 l/m 0 min 0 min 0,0 UV-I 9 W/m 17,7 km/h (3 Bft)
24.08.2014 06:46 8,3 C 7,8 C 94 % 1017,2 hPa 0,0 l/m 0 min 0 min 0,0 UV-I 11 W/m 21,3 km/h (4 Bft)
24.08.2014 06:48 8,3 C 7,8 C 95 % 1017,2 hPa 0,0 l/m 0 min 0 min 0,0 UV-I 11 W/m 14,2 km/h (3 Bft)
24.08.2014 06:50 8,3 C 7,8 C 95 % 1017,2 hPa 0,0 l/m 0 min 0 min 0,0 UV-I 12 W/m 14,2 km/h (3 Bft)
24.08.2014 06:52 8,3 C 7,8 C 95 % 1017,2 hPa 0,0 l/m 0 min 0 min 0,0 UV-I 13 W/m 14,2 km/h (3 Bft)
24.08.2014 06:54 8,3 C 7,8 C 95 % 1017,1 hPa 0,0 l/m 0 min 0 min 0,0 UV-I 14 W/m 14,2 km/h (3 Bft)
24.08.2014 06:56 8,3 C 7,8 C 95 % 1017,2 hPa 0,0 l/m 0 min 0 min 0,0 UV-I 15 W/m 14,2 km/h (3 Bft)
24.08.2014 06:58 8,3 C 7,8 C 95 % 1017,2 hPa 0,0 l/m 0 min 0 min 0,0 UV-I 17 W/m 21,3 km/h (4 Bft)
24.08.2014 07:00 8,3 C 7,8 C 95 % 1017,2 hPa 0,0 l/m 0 min 0 min 0,0 UV-I 18 W/m 14,2 km/h (3 Bft)
24.08.2014 07:02 8,3 C 7,8 C 95 % 1017,2 hPa 0,0 l/m 0 min 0 min 0,0 UV-I 22 W/m 14,2 km/h (3 Bft)
24.08.2014 07:04 8,3 C 7,8 C 95 % 1017,2 hPa 0,0 l/m 2 min 0 min 0,0 UV-I 35 W/m 17,7 km/h (3 Bft)
24.08.2014 07:06 8,3 C 7,8 C 95 % 1017,2 hPa 0,0 l/m 2 min 0 min 0,0 UV-I 41 W/m 21,3 km/h (4 Bft)
24.08.2014 07:08 8,3 C 7,8 C 95 % 1017,2 hPa 0,0 l/m 2 min 0 min 0,0 UV-I 45 W/m 21,3 km/h (4 Bft)
24.08.2014 07:10 8,3 C 7,8 C 95 % 1017,2 hPa 0,0 l/m 2 min 0 min 0,0 UV-I 47 W/m 21,3 km/h (4 Bft)
24.08.2014 07:12 8,3 C 7,8 C 95 % 1017,3 hPa 0,0 l/m 2 min 0 min 0,0 UV-I 52 W/m 21,3 km/h (4 Bft)
24.08.2014 07:14 8,4 C 7,8 C 95 % 1017,3 hPa 0,0 l/m 2 min 0 min 0,0 UV-I 59 W/m 21,3 km/h (4 Bft)
24.08.2014 07:16 8,4 C 7,8 C 95 % 1017,3 hPa 0,0 l/m 2 min 0 min 0,0 UV-I 62 W/m 24,7 km/h (4 Bft)
24.08.2014 07:18 8,4 C 7,8 C 95 % 1017,3 hPa 0,0 l/m 2 min 0 min 0,0 UV-I 66 W/m 17,7 km/h (3 Bft)
24.08.2014 07:20 8,4 C 7,8 C 95 % 1017,4 hPa 0,0 l/m 2 min 0 min 0,0 UV-I 68 W/m 21,3 km/h (4 Bft)
24.08.2014 07:22 8,4 C 7,8 C 95 % 1017,3 hPa 0,0 l/m 2 min 0 min 0,0 UV-I 72 W/m 17,7 km/h (3 Bft)
24.08.2014 07:24 8,4 C 7,8 C 95 % 1017,3 hPa 0,0 l/m 2 min 0 min 0,0 UV-I 78 W/m 14,2 km/h (3 Bft)
24.08.2014 07:26 8,4 C 7,8 C 95 % 1017,3 hPa 0,0 l/m 2 min 0 min 0,0 UV-I 82 W/m 21,3 km/h (4 Bft)
24.08.2014 07:28 8,5 C 7,8 C 95 % 1017,3 hPa 0,0 l/m 2 min 0 min 0,0 UV-I 86 W/m 17,7 km/h (3 Bft)
24.08.2014 07:30 8,5 C 7,8 C 95 % 1017,3 hPa 0,0 l/m 2 min 0 min 0,0 UV-I 91 W/m 21,3 km/h (4 Bft)
24.08.2014 07:32 8,6 C 7,8 C 95 % 1017,4 hPa 0,0 l/m 2 min 0 min 0,0 UV-I 98 W/m 24,7 km/h (4 Bft)
24.08.2014 07:34 8,6 C 8,3 C 95 % 1017,3 hPa 0,0 l/m 2 min 0 min 0,0 UV-I 107 W/m 21,3 km/h (4 Bft)
24.08.2014 07:36 8,7 C 8,3 C 95 % 1017,4 hPa 0,0 l/m 2 min 0 min 0,0 UV-I 116 W/m 21,3 km/h (4 Bft)
24.08.2014 07:38 8,7 C 8,3 C 95 % 1017,4 hPa 0,0 l/m 2 min 0 min 0,0 UV-I 125 W/m 24,7 km/h (4 Bft)
24.08.2014 07:40 8,8 C 8,3 C 95 % 1017,4 hPa 0,0 l/m 2 min 0 min 0,0 UV-I 134 W/m 28,2 km/h (4 Bft)
24.08.2014 07:42 8,8 C 8,3 C 95 % 1017,5 hPa 0,0 l/m 2 min 0 min 0,0 UV-I 143 W/m 28,2 km/h (4 Bft)
24.08.2014 07:44 8,9 C 8,3 C 95 % 1017,5 hPa 0,0 l/m 2 min 0 min 0,0 UV-I 150 W/m 24,7 km/h (4 Bft)
24.08.2014 07:46 8,9 C 8,3 C 95 % 1017,5 hPa 0,0 l/m 2 min 0 min 0,0 UV-I 157 W/m 14,2 km/h (3 Bft)
24.08.2014 07:48 9,0 C 8,3 C 95 % 1017,6 hPa 0,0 l/m 2 min 0 min 0,0 UV-I 159 W/m 21,3 km/h (4 Bft)
24.08.2014 07:50 9,1 C 8,3 C 94 % 1017,6 hPa 0,0 l/m 2 min 0 min 0,0 UV-I 152 W/m 17,7 km/h (3 Bft)
24.08.2014 07:52 9,2 C 8,9 C 94 % 1017,6 hPa 0,0 l/m 2 min 0 min 0,0 UV-I 193 W/m 24,7 km/h (4 Bft)
24.08.2014 07:54 9,2 C 8,9 C 94 % 1017,6 hPa 0,0 l/m 2 min 0 min 0,0 UV-I 205 W/m 10,7 km/h (2 Bft)
24.08.2014 07:56 9,4 C 8,9 C 94 % 1017,7 hPa 0,0 l/m 2 min 0 min 0,0 UV-I 215 W/m 17,7 km/h (3 Bft)
24.08.2014 07:58 9,4 C 8,9 C 94 % 1017,7 hPa 0,0 l/m 2 min 0 min 0,0 UV-I 225 W/m 21,3 km/h (4 Bft)
24.08.2014 08:00 9,6 C 9,4 C 94 % 1017,6 hPa 0,0 l/m 2 min 0 min 0,0 UV-I 207 W/m 17,7 km/h (3 Bft)
24.08.2014 08:02 9,7 C 9,4 C 94 % 1017,6 hPa 0,0 l/m 2 min 0 min 0,0 UV-I 244 W/m 17,7 km/h (3 Bft)
24.08.2014 08:04 9,8 C 9,4 C 94 % 1017,6 hPa 0,0 l/m 2 min 0 min 0,0 UV-I 260 W/m 17,7 km/h (3 Bft)
24.08.2014 08:06 9,9 C 9,4 C 94 % 1017,6 hPa 0,0 l/m 2 min 0 min 0,0 UV-I 239 W/m 14,2 km/h (3 Bft)
24.08.2014 08:08 10,0 C 9,4 C 93 % 1017,6 hPa 0,0 l/m 2 min 0 min 0,0 UV-I 154 W/m 17,7 km/h (3 Bft)
24.08.2014 08:10 10,2 C 10,0 C 93 % 1017,7 hPa 0,0 l/m 0 min 0 min 0,0 UV-I 115 W/m 21,3 km/h (4 Bft)
24.08.2014 08:12 10,2 C 10,0 C 93 % 1017,6 hPa 0,0 l/m 0 min 0 min 0,0 UV-I 106 W/m 17,7 km/h (3 Bft)
24.08.2014 08:14 10,3 C 10,0 C 93 % 1017,7 hPa 0,0 l/m 0 min 0 min 0,0 UV-I 104 W/m 28,2 km/h (4 Bft)
24.08.2014 08:16 10,3 C 10,0 C 92 % 1017,7 hPa 0,0 l/m 0 min 0 min 0,0 UV-I 105 W/m 17,7 km/h (3 Bft)
24.08.2014 08:18 10,4 C 10,0 C 92 % 1017,7 hPa 0,0 l/m 0 min 0 min 0,0 UV-I 110 W/m 21,3 km/h (4 Bft)
24.08.2014 08:20 10,4 C 10,0 C 92 % 1017,7 hPa 0,0 l/m 0 min 0 min 0,0 UV-I 114 W/m 31,7 km/h (5 Bft)
24.08.2014 08:22 10,4 C 10,0 C 92 % 1017,7 hPa 0,0 l/m 0 min 0 min 0,0 UV-I 112 W/m 28,2 km/h (4 Bft)
24.08.2014 08:24 10,4 C 10,0 C 91 % 1017,7 hPa 0,0 l/m 0 min 0 min 0,0 UV-I 103 W/m 21,3 km/h (4 Bft)
24.08.2014 08:26 10,4 C 9,4 C 91 % 1017,7 hPa 0,0 l/m 0 min 0 min 0,0 UV-I 96 W/m 24,7 km/h (4 Bft)
24.08.2014 08:28 10,4 C 9,4 C 91 % 1017,7 hPa 0,0 l/m 0 min 0 min 0,0 UV-I 100 W/m 28,2 km/h (4 Bft)
24.08.2014 08:30 10,4 C 9,4 C 91 % 1017,7 hPa 0,0 l/m 0 min 0 min 0,0 UV-I 117 W/m 28,2 km/h (4 Bft)
24.08.2014 08:32 10,4 C 10,0 C 91 % 1017,7 hPa 0,0 l/m 0 min 0 min 0,0 UV-I 140 W/m 28,2 km/h (4 Bft)
24.08.2014 08:34 10,5 C 10,0 C 91 % 1017,7 hPa 0,0 l/m 0 min 0 min 0,0 UV-I 144 W/m 21,3 km/h (4 Bft)
24.08.2014 08:36 10,6 C 10,0 C 91 % 1017,7 hPa 0,0 l/m 2 min 0 min 0,0 UV-I 158 W/m 21,3 km/h (4 Bft)
24.08.2014 08:38 10,6 C 10,0 C 91 % 1017,8 hPa 0,0 l/m 2 min 0 min 0,0 UV-I 167 W/m 21,3 km/h (4 Bft)
24.08.2014 08:40 10,6 C 10,0 C 91 % 1017,8 hPa 0,0 l/m 2 min 0 min 0,0 UV-I 158 W/m 21,3 km/h (4 Bft)
24.08.2014 08:42 10,6 C 10,0 C 91 % 1017,8 hPa 0,0 l/m 0 min 0 min 0,0 UV-I 144 W/m 17,7 km/h (3 Bft)
24.08.2014 08:44 10,6 C 10,0 C 91 % 1017,9 hPa 0,0 l/m 0 min 0 min 0,0 UV-I 127 W/m 21,3 km/h (4 Bft)
24.08.2014 08:46 10,6 C 10,0 C 91 % 1017,9 hPa 0,0 l/m 0 min 0 min 0,0 UV-I 104 W/m 21,3 km/h (4 Bft)
24.08.2014 08:48 10,6 C 10,0 C 91 % 1017,9 hPa 0,0 l/m 0 min 0 min 0,0 UV-I 105 W/m 24,7 km/h (4 Bft)
24.08.2014 08:50 10,5 C 10,0 C 91 % 1017,9 hPa 0,0 l/m 0 min 0 min 0,0 UV-I 130 W/m 17,7 km/h (3 Bft)
24.08.2014 08:52 10,5 C 10,0 C 91 % 1017,8 hPa 0,0 l/m 2 min 0 min 0,0 UV-I 274 W/m 17,7 km/h (3 Bft)
24.08.2014 08:54 10,6 C 10,0 C 91 % 1017,8 hPa 0,0 l/m 2 min 0 min 0,0 UV-I 329 W/m 14,2 km/h (3 Bft)
24.08.2014 08:56 10,6 C 10,0 C 91 % 1017,8 hPa 0,0 l/m 2 min 0 min 0,0 UV-I 330 W/m 17,7 km/h (3 Bft)
24.08.2014 08:58 10,7 C 10,0 C 91 % 1017,8 hPa 0,0 l/m 2 min 0 min 0,0 UV-I 334 W/m 28,2 km/h (4 Bft)
24.08.2014 09:00 10,8 C 10,0 C 91 % 1017,8 hPa 0,0 l/m 2 min 0 min 0,0 UV-I 339 W/m 21,3 km/h (4 Bft)
24.08.2014 09:02 10,8 C 10,0 C 91 % 1017,8 hPa 0,0 l/m 2 min 0 min 0,0 UV-I 346 W/m 17,7 km/h (3 Bft)
24.08.2014 09:04 10,9 C 10,0 C 90 % 1017,8 hPa 0,0 l/m 2 min 0 min 0,0 UV-I 350 W/m 24,7 km/h (4 Bft)
24.08.2014 09:06 11,0 C 10,0 C 90 % 1017,8 hPa 0,0 l/m 2 min 0 min 0,0 UV-I 355 W/m 17,7 km/h (3 Bft)
24.08.2014 09:08 11,1 C 10,0 C 90 % 1017,8 hPa 0,0 l/m 2 min 0 min 0,0 UV-I 360 W/m 21,3 km/h (4 Bft)
24.08.2014 09:10 11,2 C 10,0 C 90 % 1017,9 hPa 0,0 l/m 2 min 0 min 0,0 UV-I 365 W/m 14,2 km/h (3 Bft)
24.08.2014 09:12 11,2 C 10,0 C 90 % 1017,9 hPa 0,0 l/m 2 min 0 min 0,0 UV-I 370 W/m 21,3 km/h (4 Bft)
24.08.2014 09:14 11,3 C 10,0 C 89 % 1017,9 hPa 0,0 l/m 2 min 0 min 0,0 UV-I 376 W/m 28,2 km/h (4 Bft)
24.08.2014 09:16 11,4 C 10,0 C 89 % 1018,0 hPa 0,0 l/m 2 min 0 min 0,0 UV-I 379 W/m 21,3 km/h (4 Bft)
24.08.2014 09:18 11,7 C 10,6 C 89 % 1018,0 hPa 0,0 l/m 2 min 0 min 0,5 UV-I 382 W/m 28,2 km/h (4 Bft)
24.08.2014 09:20 11,7 C 10,6 C 89 % 1018,0 hPa 0,0 l/m 2 min 0 min 0,5 UV-I 390 W/m 31,7 km/h (5 Bft)
24.08.2014 09:22 11,8 C 10,6 C 88 % 1018,0 hPa 0,0 l/m 2 min 0 min 0,5 UV-I 395 W/m 24,7 km/h (4 Bft)
24.08.2014 09:24 11,9 C 10,6 C 88 % 1018,1 hPa 0,0 l/m 2 min 0 min 0,5 UV-I 396 W/m 24,7 km/h (4 Bft)
24.08.2014 09:26 12,1 C 10,6 C 87 % 1018,1 hPa 0,0 l/m 2 min 0 min 0,6 UV-I 401 W/m 28,2 km/h (4 Bft)
24.08.2014 09:28 12,2 C 10,6 C 87 % 1018,2 hPa 0,0 l/m 2 min 0 min 0,6 UV-I 408 W/m 28,2 km/h (4 Bft)
24.08.2014 09:30 12,3 C 10,6 C 87 % 1018,2 hPa 0,0 l/m 2 min 0 min 0,6 UV-I 409 W/m 28,2 km/h (4 Bft)
24.08.2014 09:32 12,4 C 10,6 C 87 % 1018,3 hPa 0,0 l/m 2 min 0 min 0,7 UV-I 413 W/m 24,7 km/h (4 Bft)
24.08.2014 09:34 12,4 C 11,1 C 86 % 1018,2 hPa 0,0 l/m 2 min 0 min 0,7 UV-I 414 W/m 21,3 km/h (4 Bft)
24.08.2014 09:36 12,5 C 11,1 C 86 % 1018,3 hPa 0,0 l/m 2 min 0 min 0,7 UV-I 417 W/m 31,7 km/h (5 Bft)
24.08.2014 09:38 12,6 C 11,1 C 86 % 1018,2 hPa 0,0 l/m 2 min 0 min 0,8 UV-I 431 W/m 28,2 km/h (4 Bft)
24.08.2014 09:40 12,7 C 11,7 C 85 % 1018,2 hPa 0,0 l/m 2 min 0 min 0,8 UV-I 435 W/m 31,7 km/h (5 Bft)
24.08.2014 09:42 12,7 C 12,2 C 85 % 1018,3 hPa 0,0 l/m 2 min 0 min 0,8 UV-I 440 W/m 28,2 km/h (4 Bft)
24.08.2014 09:44 12,8 C 12,8 C 85 % 1018,2 hPa 0,0 l/m 2 min 0 min 0,8 UV-I 444 W/m 21,3 km/h (4 Bft)
24.08.2014 09:46 12,9 C 13,3 C 85 % 1018,3 hPa 0,0 l/m 2 min 0 min 0,9 UV-I 451 W/m 24,7 km/h (4 Bft)
24.08.2014 09:48 12,9 C 13,3 C 84 % 1018,3 hPa 0,0 l/m 2 min 0 min 0,9 UV-I 450 W/m 24,7 km/h (4 Bft)
24.08.2014 09:50 13,0 C 13,9 C 84 % 1018,3 hPa 0,0 l/m 2 min 0 min 0,9 UV-I 369 W/m 28,2 km/h (4 Bft)
24.08.2014 09:52 13,1 C 14,4 C 85 % 1018,3 hPa 0,0 l/m 2 min 0 min 0,9 UV-I 414 W/m 24,7 km/h (4 Bft)
24.08.2014 09:54 13,3 C 14,4 C 84 % 1018,3 hPa 0,0 l/m 2 min 0 min 1,0 UV-I 473 W/m 28,2 km/h (4 Bft)
24.08.2014 09:56 13,3 C 14,4 C 83 % 1018,3 hPa 0,0 l/m 2 min 0 min 1,0 UV-I 477 W/m 21,3 km/h (4 Bft)
24.08.2014 09:58 13,4 C 15,0 C 83 % 1018,3 hPa 0,0 l/m 2 min 0 min 1,1 UV-I 481 W/m 28,2 km/h (4 Bft)
24.08.2014 10:00 13,5 C 15,0 C 83 % 1018,3 hPa 0,0 l/m 2 min 0 min 1,1 UV-I 483 W/m 28,2 km/h (4 Bft)
24.08.2014 10:02 13,7 C 13,9 C 83 % 1018,3 hPa 0,0 l/m 2 min 0 min 1,1 UV-I 487 W/m 24,7 km/h (4 Bft)
24.08.2014 10:04 13,7 C 13,9 C 83 % 1018,2 hPa 0,0 l/m 2 min 0 min 1,2 UV-I 492 W/m 17,7 km/h (3 Bft)
24.08.2014 10:06 13,9 C 13,3 C 83 % 1018,3 hPa 0,0 l/m 2 min 0 min 1,2 UV-I 494 W/m 21,3 km/h (4 Bft)
24.08.2014 10:08 14,0 C 13,3 C 82 % 1018,3 hPa 0,0 l/m 2 min 0 min 1,2 UV-I 496 W/m 24,7 km/h (4 Bft)
24.08.2014 10:10 14,1 C 12,8 C 81 % 1018,3 hPa 0,0 l/m 2 min 0 min 1,3 UV-I 500 W/m 24,7 km/h (4 Bft)
24.08.2014 10:12 14,1 C 12,8 C 81 % 1018,3 hPa 0,0 l/m 2 min 0 min 1,3 UV-I 505 W/m 21,3 km/h (4 Bft)
24.08.2014 10:14 14,2 C 13,3 C 82 % 1018,3 hPa 0,0 l/m 2 min 0 min 1,3 UV-I 511 W/m 10,7 km/h (2 Bft)
24.08.2014 10:16 14,5 C 13,3 C 82 % 1018,3 hPa 0,0 l/m 2 min 0 min 1,3 UV-I 512 W/m 0,0 km/h (0 Bft)
24.08.2014 10:18 14,6 C 13,3 C 81 % 1018,4 hPa 0,0 l/m 2 min 0 min 1,3 UV-I 489 W/m 14,2 km/h (3 Bft)
24.08.2014 10:20 14,7 C 13,3 C 81 % 1018,4 hPa 0,0 l/m 2 min 0 min 1,4 UV-I 516 W/m 24,7 km/h (4 Bft)
24.08.2014 10:22 14,6 C 13,3 C 80 % 1018,3 hPa 0,0 l/m 2 min 0 min 1,4 UV-I 516 W/m 28,2 km/h (4 Bft)
24.08.2014 10:24 14,7 C 13,3 C 80 % 1018,4 hPa 0,0 l/m 2 min 0 min 1,5 UV-I 549 W/m 21,3 km/h (4 Bft)
24.08.2014 10:26 14,7 C 13,3 C 79 % 1018,4 hPa 0,0 l/m 2 min 0 min 1,5 UV-I 549 W/m 21,3 km/h (4 Bft)
24.08.2014 10:28 14,7 C 13,3 C 80 % 1018,4 hPa 0,0 l/m 2 min 0 min 1,5 UV-I 531 W/m 17,7 km/h (3 Bft)
24.08.2014 10:30 14,9 C 13,9 C 80 % 1018,5 hPa 0,0 l/m 2 min 0 min 1,6 UV-I 545 W/m 21,3 km/h (4 Bft)
24.08.2014 10:32 15,0 C 13,9 C 79 % 1018,5 hPa 0,0 l/m 2 min 0 min 1,6 UV-I 557 W/m 21,3 km/h (4 Bft)
24.08.2014 10:34 15,1 C 13,9 C 79 % 1018,5 hPa 0,0 l/m 2 min 0 min 1,7 UV-I 567 W/m 14,2 km/h (3 Bft)
24.08.2014 10:36 15,3 C 13,9 C 79 % 1018,5 hPa 0,0 l/m 2 min 0 min 1,7 UV-I 574 W/m 17,7 km/h (3 Bft)
24.08.2014 10:38 15,4 C 13,9 C 78 % 1018,5 hPa 0,0 l/m 2 min 0 min 1,7 UV-I 566 W/m 28,2 km/h (4 Bft)
24.08.2014 10:40 15,3 C 13,9 C 78 % 1018,5 hPa 0,0 l/m 2 min 0 min 1,8 UV-I 576 W/m 28,2 km/h (4 Bft)
24.08.2014 10:42 15,3 C 13,9 C 77 % 1018,5 hPa 0,0 l/m 2 min 0 min 1,8 UV-I 579 W/m 17,7 km/h (3 Bft)
24.08.2014 10:44 15,4 C 13,3 C 77 % 1018,5 hPa 0,0 l/m 2 min 0 min 1,8 UV-I 577 W/m 21,3 km/h (4 Bft)
24.08.2014 10:46 15,5 C 13,3 C 77 % 1018,5 hPa 0,0 l/m 2 min 0 min 1,8 UV-I 576 W/m 24,7 km/h (4 Bft)
24.08.2014 10:48 15,5 C 13,9 C 77 % 1018,5 hPa 0,0 l/m 2 min 0 min 1,9 UV-I 593 W/m 17,7 km/h (3 Bft)
24.08.2014 10:50 15,6 C 13,9 C 77 % 1018,5 hPa 0,0 l/m 2 min 0 min 1,9 UV-I 595 W/m 14,2 km/h (3 Bft)
24.08.2014 10:52 15,7 C 13,9 C 77 % 1018,4 hPa 0,0 l/m 2 min 0 min 2,0 UV-I 600 W/m 28,2 km/h (4 Bft)
24.08.2014 10:54 15,7 C 13,9 C 77 % 1018,4 hPa 0,0 l/m 2 min 0 min 2,0 UV-I 591 W/m 31,7 km/h (5 Bft)
24.08.2014 10:56 15,8 C 14,4 C 76 % 1018,4 hPa 0,0 l/m 2 min 0 min 2,0 UV-I 577 W/m 21,3 km/h (4 Bft)
24.08.2014 10:58 15,8 C 14,4 C 76 % 1018,5 hPa 0,0 l/m 2 min 0 min 2,1 UV-I 586 W/m 24,7 km/h (4 Bft)
24.08.2014 11:00 15,9 C 14,4 C 76 % 1018,5 hPa 0,0 l/m 2 min 0 min 2,1 UV-I 598 W/m 17,7 km/h (3 Bft)
24.08.2014 11:02 16,0 C 15,0 C 76 % 1018,4 hPa 0,0 l/m 2 min 0 min 2,2 UV-I 606 W/m 17,7 km/h (3 Bft)
24.08.2014 11:04 15,9 C 14,4 C 74 % 1018,5 hPa 0,0 l/m 2 min 0 min 1,6 UV-I 533 W/m 28,2 km/h (4 Bft)
24.08.2014 11:06 15,8 C 15,0 C 75 % 1018,4 hPa 0,0 l/m 2 min 0 min 2,1 UV-I 599 W/m 31,7 km/h (5 Bft)
24.08.2014 11:08 15,9 C 15,0 C 75 % 1018,5 hPa 0,0 l/m 2 min 0 min 2,2 UV-I 608 W/m 21,3 km/h (4 Bft)
24.08.2014 11:10 16,1 C 15,0 C 76 % 1018,5 hPa 0,0 l/m 2 min 0 min 2,3 UV-I 606 W/m 21,3 km/h (4 Bft)
24.08.2014 11:12 16,1 C 15,0 C 76 % 1018,5 hPa 0,0 l/m 2 min 0 min 2,3 UV-I 599 W/m 24,7 km/h (4 Bft)
24.08.2014 11:14 16,3 C 15,0 C 75 % 1018,6 hPa 0,0 l/m 2 min 0 min 2,3 UV-I 607 W/m 31,7 km/h (5 Bft)
24.08.2014 11:16 16,2 C 15,0 C 74 % 1018,5 hPa 0,0 l/m 2 min 0 min 2,3 UV-I 607 W/m 21,3 km/h (4 Bft)
24.08.2014 11:18 16,4 C 15,6 C 76 % 1018,5 hPa 0,0 l/m 2 min 0 min 2,3 UV-I 602 W/m 21,3 km/h (4 Bft)
24.08.2014 11:20 16,5 C 15,6 C 73 % 1018,6 hPa 0,0 l/m 2 min 0 min 2,4 UV-I 615 W/m 31,7 km/h (5 Bft)
24.08.2014 11:22 16,4 C 15,6 C 74 % 1018,5 hPa 0,0 l/m 2 min 0 min 2,4 UV-I 619 W/m 17,7 km/h (3 Bft)
24.08.2014 11:24 16,2 C 15,0 C 73 % 1018,5 hPa 0,0 l/m 2 min 0 min 1,5 UV-I 398 W/m 21,3 km/h (4 Bft)
24.08.2014 11:26 16,1 C 15,0 C 74 % 1018,4 hPa 0,0 l/m 2 min 0 min 2,4 UV-I 435 W/m 10,7 km/h (2 Bft)
24.08.2014 11:28 16,3 C 15,6 C 75 % 1018,5 hPa 0,0 l/m 2 min 0 min 2,5 UV-I 604 W/m 28,2 km/h (4 Bft)
24.08.2014 11:30 16,3 C 15,6 C 72 % 1018,5 hPa 0,0 l/m 2 min 0 min 2,6 UV-I 650 W/m 31,7 km/h (5 Bft)
24.08.2014 11:32 16,4 C 15,6 C 74 % 1018,5 hPa 0,0 l/m 2 min 0 min 2,6 UV-I 688 W/m 35,4 km/h (5 Bft)
24.08.2014 11:34 16,5 C 15,6 C 73 % 1018,4 hPa 0,0 l/m 2 min 0 min 2,3 UV-I 686 W/m 35,4 km/h (5 Bft)
24.08.2014 11:36 16,3 C 15,6 C 72 % 1018,4 hPa 0,0 l/m 0 min 0 min 1,8 UV-I 257 W/m 28,2 km/h (4 Bft)
24.08.2014 11:38 16,4 C 15,6 C 73 % 1018,5 hPa 0,0 l/m 2 min 0 min 2,8 UV-I 664 W/m 28,2 km/h (4 Bft)
24.08.2014 11:40 16,6 C 16,1 C 73 % 1018,4 hPa 0,0 l/m 2 min 0 min 2,9 UV-I 683 W/m 14,2 km/h (3 Bft)
24.08.2014 11:42 16,8 C 16,1 C 72 % 1018,4 hPa 0,0 l/m 2 min 0 min 2,9 UV-I 678 W/m 24,7 km/h (4 Bft)
24.08.2014 11:44 16,9 C 16,1 C 71 % 1018,5 hPa 0,0 l/m 2 min 0 min 2,8 UV-I 655 W/m 31,7 km/h (5 Bft)
24.08.2014 11:46 17,0 C 16,7 C 69 % 1018,5 hPa 0,0 l/m 2 min 0 min 2,8 UV-I 643 W/m 24,7 km/h (4 Bft)
24.08.2014 11:48 17,2 C 16,7 C 70 % 1018,4 hPa 0,0 l/m 2 min 0 min 2,8 UV-I 635 W/m 35,4 km/h (5 Bft)
24.08.2014 11:50 17,3 C 16,7 C 68 % 1018,5 hPa 0,0 l/m 2 min 0 min 2,8 UV-I 636 W/m 42,4 km/h (6 Bft)
24.08.2014 11:52 17,2 C 16,1 C 67 % 1018,5 hPa 0,0 l/m 2 min 0 min 2,1 UV-I 452 W/m 24,7 km/h (4 Bft)
24.08.2014 11:54 17,2 C 16,1 C 69 % 1018,4 hPa 0,0 l/m 2 min 0 min 2,9 UV-I 396 W/m 31,7 km/h (5 Bft)
24.08.2014 11:56 17,3 C 16,7 C 67 % 1018,4 hPa 0,0 l/m 2 min 0 min 3,1 UV-I 539 W/m 17,7 km/h (3 Bft)
24.08.2014 11:58 17,4 C 16,7 C 68 % 1018,4 hPa 0,0 l/m 2 min 0 min 3,2 UV-I 460 W/m 24,7 km/h (4 Bft)
24.08.2014 12:00 17,4 C 16,7 C 70 % 1018,4 hPa 0,0 l/m 2 min 0 min 3,2 UV-I 393 W/m 31,7 km/h (5 Bft)
24.08.2014 12:02 17,5 C 16,7 C 67 % 1018,4 hPa 0,0 l/m 2 min 0 min 3,1 UV-I 439 W/m 38,9 km/h (6 Bft)
24.08.2014 12:06 17,1 C 16,1 C 68 % 1018,4 hPa 0,0 l/m 0 min 0 min 2,3 UV-I 307 W/m 46,0 km/h (6 Bft)
24.08.2014 12:08 17,1 C 16,7 C 68 % 1018,4 hPa 0,0 l/m 2 min 0 min 3,3 UV-I 596 W/m 31,7 km/h (5 Bft)
24.08.2014 12:10 17,4 C 16,7 C 69 % 1018,4 hPa 0,0 l/m 2 min 0 min 3,3 UV-I 811 W/m 28,2 km/h (4 Bft)
24.08.2014 12:12 17,6 C 17,2 C 67 % 1018,4 hPa 0,0 l/m 2 min 0 min 3,3 UV-I 826 W/m 38,9 km/h (6 Bft)
24.08.2014 12:14 17,6 C 17,2 C 66 % 1018,4 hPa 0,0 l/m 2 min 0 min 3,2 UV-I 692 W/m 21,3 km/h (4 Bft)
24.08.2014 12:16 17,7 C 17,2 C 67 % 1018,4 hPa 0,0 l/m 0 min 0 min 2,5 UV-I 330 W/m 24,7 km/h (4 Bft)
24.08.2014 12:18 17,6 C 16,7 C 67 % 1018,5 hPa 0,0 l/m 0 min 0 min 1,3 UV-I 183 W/m 31,7 km/h (5 Bft)
24.08.2014 12:20 17,3 C 16,1 C 66 % 1018,5 hPa 0,0 l/m 0 min 0 min 1,2 UV-I 155 W/m 42,4 km/h (6 Bft)
24.08.2014 12:22 16,8 C 15,6 C 66 % 1018,5 hPa 0,0 l/m 0 min 0 min 1,3 UV-I 146 W/m 28,2 km/h (4 Bft)
24.08.2014 12:24 16,4 C 15,6 C 68 % 1018,5 hPa 0,0 l/m 0 min 0 min 2,3 UV-I 251 W/m 21,3 km/h (4 Bft)
24.08.2014 12:26 16,7 C 16,1 C 71 % 1018,4 hPa 0,0 l/m 2 min 0 min 3,3 UV-I 772 W/m 24,7 km/h (4 Bft)
24.08.2014 12:28 17,1 C 16,7 C 69 % 1018,4 hPa 0,0 l/m 2 min 0 min 3,4 UV-I 783 W/m 17,7 km/h (3 Bft)
24.08.2014 12:30 17,6 C 17,2 C 69 % 1018,5 hPa 0,0 l/m 2 min 0 min 3,6 UV-I 789 W/m 53,0 km/h (7 Bft)
24.08.2014 12:32 17,7 C 17,2 C 68 % 1018,5 hPa 0,0 l/m 2 min 0 min 3,5 UV-I 788 W/m 31,7 km/h (5 Bft)
24.08.2014 12:34 17,8 C 17,8 C 65 % 1018,4 hPa 0,0 l/m 2 min 0 min 3,4 UV-I 786 W/m 17,7 km/h (3 Bft)
24.08.2014 12:36 18,0 C 17,8 C 68 % 1018,4 hPa 0,0 l/m 2 min 0 min 3,5 UV-I 812 W/m 24,7 km/h (4 Bft)
24.08.2014 12:38 18,2 C 18,3 C 67 % 1018,5 hPa 0,0 l/m 2 min 0 min 2,5 UV-I 834 W/m 42,4 km/h (6 Bft)
24.08.2014 12:40 18,3 C 18,3 C 65 % 1018,5 hPa 0,0 l/m 2 min 0 min 2,2 UV-I 848 W/m 24,7 km/h (4 Bft)
24.08.2014 12:42 18,6 C 18,9 C 67 % 1018,4 hPa 0,0 l/m 2 min 0 min 2,3 UV-I 867 W/m 31,7 km/h (5 Bft)
24.08.2014 12:44 18,7 C 18,9 C 64 % 1018,4 hPa 0,0 l/m 2 min 0 min 2,1 UV-I 869 W/m 38,9 km/h (6 Bft)
24.08.2014 12:46 18,4 C 18,3 C 63 % 1018,5 hPa 0,0 l/m 0 min 0 min 1,8 UV-I 340 W/m 35,4 km/h (5 Bft)
24.08.2014 12:48 17,9 C 17,2 C 62 % 1018,5 hPa 0,0 l/m 0 min 0 min 1,8 UV-I 276 W/m 35,4 km/h (5 Bft)
24.08.2014 12:50 17,5 C 16,7 C 64 % 1018,5 hPa 0,0 l/m 0 min 0 min 1,6 UV-I 249 W/m 42,4 km/h (6 Bft)
24.08.2014 12:52 17,1 C 16,1 C 65 % 1018,5 hPa 0,0 l/m 0 min 0 min 1,4 UV-I 223 W/m 42,4 km/h (6 Bft)
24.08.2014 12:54 16,9 C 16,1 C 67 % 1018,5 hPa 0,0 l/m 0 min 0 min 1,7 UV-I 254 W/m 31,7 km/h (5 Bft)
24.08.2014 12:56 16,9 C 16,7 C 69 % 1018,5 hPa 0,0 l/m 0 min 0 min 2,7 UV-I 309 W/m 35,4 km/h (5 Bft)
24.08.2014 12:58 17,4 C 17,2 C 69 % 1018,5 hPa 0,0 l/m 2 min 0 min 3,5 UV-I 809 W/m 24,7 km/h (4 Bft)
24.08.2014 13:00 17,7 C 17,2 C 66 % 1018,4 hPa 0,0 l/m 2 min 0 min 1,8 UV-I 438 W/m 17,7 km/h (3 Bft)
24.08.2014 13:02 17,5 C 16,7 C 66 % 1018,4 hPa 0,0 l/m 0 min 0 min 1,5 UV-I 206 W/m 21,3 km/h (4 Bft)
24.08.2014 13:04 17,4 C 16,7 C 68 % 1018,4 hPa 0,0 l/m 0 min 0 min 1,5 UV-I 210 W/m 21,3 km/h (4 Bft)
24.08.2014 13:06 17,4 C 16,7 C 68 % 1018,4 hPa 0,0 l/m 0 min 0 min 2,4 UV-I 218 W/m 17,7 km/h (3 Bft)
24.08.2014 13:08 17,6 C 17,2 C 66 % 1018,4 hPa 0,0 l/m 2 min 0 min 3,3 UV-I 416 W/m 35,4 km/h (5 Bft)
24.08.2014 13:10 17,8 C 17,8 C 67 % 1018,3 hPa 0,0 l/m 2 min 0 min 3,4 UV-I 790 W/m 24,7 km/h (4 Bft)
24.08.2014 13:12 18,1 C 17,8 C 68 % 1018,3 hPa 0,0 l/m 2 min 0 min 3,5 UV-I 790 W/m 31,7 km/h (5 Bft)
24.08.2014 13:14 18,2 C 17,8 C 66 % 1018,3 hPa 0,0 l/m 2 min 0 min 2,8 UV-I 801 W/m 17,7 km/h (3 Bft)
24.08.2014 13:16 18,3 C 17,8 C 64 % 1018,2 hPa 0,0 l/m 2 min 0 min 2,3 UV-I 764 W/m 28,2 km/h (4 Bft)
24.08.2014 13:18 18,4 C 18,3 C 66 % 1018,2 hPa 0,0 l/m 2 min 0 min 3,4 UV-I 503 W/m 31,7 km/h (5 Bft)
24.08.2014 13:20 18,5 C 18,3 C 64 % 1018,2 hPa 0,0 l/m 2 min 0 min 3,7 UV-I 818 W/m 35,4 km/h (5 Bft)
24.08.2014 13:22 18,5 C 18,3 C 64 % 1018,1 hPa 0,0 l/m 2 min 0 min 2,8 UV-I 754 W/m 28,2 km/h (4 Bft)
24.08.2014 13:24 18,4 C 17,8 C 64 % 1018,1 hPa 0,0 l/m 0 min 0 min 1,7 UV-I 205 W/m 21,3 km/h (4 Bft)
24.08.2014 13:26 18,1 C 17,2 C 64 % 1018,2 hPa 0,0 l/m 0 min 0 min 1,6 UV-I 247 W/m 21,3 km/h (4 Bft)
24.08.2014 13:28 18,1 C 17,8 C 67 % 1018,2 hPa 0,0 l/m 2 min 0 min 2,8 UV-I 386 W/m 49,5 km/h (6 Bft)
24.08.2014 13:30 18,3 C 18,3 C 63 % 1018,2 hPa 0,0 l/m 2 min 0 min 3,3 UV-I 818 W/m 35,4 km/h (5 Bft)
24.08.2014 13:32 18,4 C 18,3 C 65 % 1018,2 hPa 0,0 l/m 2 min 0 min 3,4 UV-I 808 W/m 35,4 km/h (5 Bft)
24.08.2014 13:34 18,7 C 18,9 C 62 % 1018,1 hPa 0,0 l/m 2 min 0 min 3,4 UV-I 820 W/m 42,4 km/h (6 Bft)
24.08.2014 13:36 18,7 C 18,9 C 63 % 1018,1 hPa 0,0 l/m 2 min 0 min 3,4 UV-I 824 W/m 38,9 km/h (6 Bft)
24.08.2014 13:38 18,8 C 18,9 C 62 % 1018,1 hPa 0,0 l/m 2 min 0 min 3,3 UV-I 811 W/m 46,0 km/h (6 Bft)
24.08.2014 13:40 18,9 C 18,9 C 62 % 1018,0 hPa 0,0 l/m 2 min 0 min 3,2 UV-I 795 W/m 28,2 km/h (4 Bft)
24.08.2014 13:42 19,1 C 18,9 C 60 % 1018,0 hPa 0,0 l/m 2 min 0 min 3,2 UV-I 801 W/m 31,7 km/h (5 Bft)
24.08.2014 13:44 18,9 C 18,9 C 61 % 1018,0 hPa 0,0 l/m 2 min 0 min 3,0 UV-I 812 W/m 35,4 km/h (5 Bft)
24.08.2014 13:46 19,0 C 18,3 C 62 % 1018,0 hPa 0,0 l/m 2 min 0 min 2,9 UV-I 812 W/m 42,4 km/h (6 Bft)
24.08.2014 13:48 19,0 C 18,9 C 62 % 1018,0 hPa 0,0 l/m 2 min 0 min 2,9 UV-I 780 W/m 35,4 km/h (5 Bft)
24.08.2014 13:50 19,1 C 18,9 C 63 % 1018,0 hPa 0,0 l/m 2 min 0 min 3,2 UV-I 761 W/m 17,7 km/h (3 Bft)
24.08.2014 13:52 19,1 C 18,9 C 63 % 1017,9 hPa 0,0 l/m 2 min 0 min 2,5 UV-I 712 W/m 28,2 km/h (4 Bft)
24.08.2014 13:54 19,0 C 18,9 C 61 % 1017,9 hPa 0,0 l/m 2 min 0 min 3,5 UV-I 723 W/m 31,7 km/h (5 Bft)
24.08.2014 13:56 19,0 C 18,9 C 62 % 1018,0 hPa 0,0 l/m 2 min 0 min 3,5 UV-I 768 W/m 24,7 km/h (4 Bft)
24.08.2014 13:58 19,1 C 18,9 C 62 % 1017,9 hPa 0,0 l/m 2 min 0 min 3,5 UV-I 763 W/m 28,2 km/h (4 Bft)
24.08.2014 14:00 19,2 C 18,9 C 62 % 1017,9 hPa 0,0 l/m 2 min 0 min 3,4 UV-I 734 W/m 21,3 km/h (4 Bft)
24.08.2014 14:02 19,4 C 18,9 C 64 % 1017,9 hPa 0,0 l/m 2 min 0 min 3,4 UV-I 732 W/m 14,2 km/h (3 Bft)
24.08.2014 14:04 19,7 C 19,4 C 61 % 1017,9 hPa 0,0 l/m 2 min 0 min 3,5 UV-I 791 W/m 28,2 km/h (4 Bft)
24.08.2014 14:06 19,8 C 19,4 C 60 % 1017,9 hPa 0,0 l/m 2 min 0 min 3,6 UV-I 823 W/m 28,2 km/h (4 Bft)
24.08.2014 14:08 19,8 C 19,4 C 61 % 1017,8 hPa 0,0 l/m 2 min 0 min 3,6 UV-I 825 W/m 24,7 km/h (4 Bft)
24.08.2014 14:10 19,8 C 19,4 C 59 % 1017,9 hPa 0,0 l/m 2 min 0 min 3,5 UV-I 772 W/m 42,4 km/h (6 Bft)
24.08.2014 14:12 19,6 C 18,9 C 59 % 1017,8 hPa 0,0 l/m 2 min 0 min 3,5 UV-I 758 W/m 46,0 km/h (6 Bft)
24.08.2014 14:14 19,3 C 18,9 C 57 % 1017,8 hPa 0,0 l/m 2 min 0 min 2,8 UV-I 788 W/m 53,0 km/h (7 Bft)
24.08.2014 14:16 19,2 C 18,3 C 59 % 1017,8 hPa 0,0 l/m 2 min 0 min 2,9 UV-I 789 W/m 42,4 km/h (6 Bft)
24.08.2014 14:18 19,1 C 18,3 C 60 % 1017,7 hPa 0,0 l/m 2 min 0 min 3,5 UV-I 789 W/m 67,1 km/h (8 Bft)
24.08.2014 14:20 19,1 C 18,3 C 59 % 1017,8 hPa 0,0 l/m 2 min 0 min 3,6 UV-I 779 W/m 42,4 km/h (6 Bft)
24.08.2014 14:22 19,2 C 18,9 C 61 % 1017,8 hPa 0,0 l/m 2 min 0 min 3,4 UV-I 760 W/m 49,5 km/h (6 Bft)
24.08.2014 14:24 19,2 C 18,9 C 58 % 1017,8 hPa 0,0 l/m 2 min 0 min 3,4 UV-I 775 W/m 60,2 km/h (7 Bft)
24.08.2014 14:26 19,2 C 18,9 C 61 % 1017,8 hPa 0,0 l/m 2 min 0 min 3,4 UV-I 726 W/m 42,4 km/h (6 Bft)
24.08.2014 14:28 19,3 C 18,9 C 61 % 1017,8 hPa 0,0 l/m 2 min 0 min 3,2 UV-I 696 W/m 53,0 km/h (7 Bft)
24.08.2014 14:30 19,2 C 18,3 C 59 % 1017,7 hPa 0,0 l/m 2 min 0 min 3,3 UV-I 709 W/m 35,4 km/h (5 Bft)
24.08.2014 14:32 19,2 C 18,3 C 58 % 1017,7 hPa 0,0 l/m 2 min 0 min 3,2 UV-I 691 W/m 35,4 km/h (5 Bft)
24.08.2014 14:34 19,3 C 18,3 C 60 % 1017,7 hPa 0,0 l/m 2 min 0 min 3,1 UV-I 661 W/m 38,9 km/h (6 Bft)
24.08.2014 14:36 19,2 C 18,3 C 59 % 1017,7 hPa 0,0 l/m 2 min 0 min 3,0 UV-I 655 W/m 35,4 km/h (5 Bft)
24.08.2014 14:38 19,3 C 18,9 C 58 % 1017,7 hPa 0,0 l/m 2 min 0 min 3,1 UV-I 684 W/m 28,2 km/h (4 Bft)
24.08.2014 14:40 19,3 C 18,9 C 58 % 1017,7 hPa 0,0 l/m 2 min 0 min 3,1 UV-I 688 W/m 49,5 km/h (6 Bft)
24.08.2014 14:42 19,3 C 18,3 C 58 % 1017,7 hPa 0,0 l/m 2 min 0 min 3,0 UV-I 692 W/m 56,5 km/h (7 Bft)
24.08.2014 14:44 19,3 C 18,3 C 57 % 1017,7 hPa 0,0 l/m 2 min 0 min 3,1 UV-I 709 W/m 49,5 km/h (6 Bft)
24.08.2014 14:46 19,3 C 18,3 C 58 % 1017,7 hPa 0,0 l/m 2 min 0 min 3,1 UV-I 726 W/m 42,4 km/h (6 Bft)
24.08.2014 14:48 19,4 C 18,3 C 58 % 1017,7 hPa 0,0 l/m 2 min 0 min 3,1 UV-I 718 W/m 42,4 km/h (6 Bft)
24.08.2014 14:50 19,3 C 18,9 C 58 % 1017,7 hPa 0,0 l/m 2 min 0 min 3,1 UV-I 718 W/m 42,4 km/h (6 Bft)
24.08.2014 14:52 19,7 C 18,9 C 57 % 1017,7 hPa 0,0 l/m 2 min 0 min 3,1 UV-I 680 W/m 31,7 km/h (5 Bft)
24.08.2014 14:54 19,7 C 18,9 C 58 % 1017,6 hPa 0,0 l/m 2 min 0 min 3,0 UV-I 668 W/m 35,4 km/h (5 Bft)
24.08.2014 14:56 19,8 C 18,9 C 57 % 1017,7 hPa 0,0 l/m 2 min 0 min 3,0 UV-I 681 W/m 46,0 km/h (6 Bft)
24.08.2014 14:58 19,8 C 18,9 C 58 % 1017,6 hPa 0,0 l/m 2 min 0 min 3,0 UV-I 669 W/m 35,4 km/h (5 Bft)
24.08.2014 15:00 19,9 C 18,9 C 60 % 1017,6 hPa 0,0 l/m 2 min 0 min 3,0 UV-I 661 W/m 24,7 km/h (4 Bft)
24.08.2014 15:02 19,9 C 18,9 C 58 % 1017,5 hPa 0,0 l/m 2 min 0 min 3,0 UV-I 666 W/m 38,9 km/h (6 Bft)
24.08.2014 15:04 19,7 C 18,9 C 57 % 1017,6 hPa 0,0 l/m 2 min 0 min 3,0 UV-I 683 W/m 42,4 km/h (6 Bft)
24.08.2014 15:06 19,7 C 18,9 C 59 % 1017,5 hPa 0,0 l/m 2 min 0 min 2,9 UV-I 699 W/m 28,2 km/h (4 Bft)
24.08.2014 15:08 19,8 C 19,4 C 59 % 1017,4 hPa 0,0 l/m 2 min 0 min 3,0 UV-I 699 W/m 31,7 km/h (5 Bft)
24.08.2014 15:10 20,0 C 19,4 C 57 % 1017,6 hPa 0,0 l/m 2 min 0 min 2,9 UV-I 668 W/m 46,0 km/h (6 Bft)
24.08.2014 15:12 19,9 C 18,9 C 57 % 1017,5 hPa 0,0 l/m 2 min 0 min 2,8 UV-I 640 W/m 46,0 km/h (6 Bft)
24.08.2014 15:14 19,8 C 18,9 C 57 % 1017,5 hPa 0,0 l/m 2 min 0 min 2,7 UV-I 613 W/m 49,5 km/h (6 Bft)
24.08.2014 15:16 19,8 C 18,9 C 57 % 1017,5 hPa 0,0 l/m 2 min 0 min 2,7 UV-I 614 W/m 46,0 km/h (6 Bft)
24.08.2014 15:18 19,8 C 18,9 C 56 % 1017,5 hPa 0,0 l/m 2 min 0 min 2,7 UV-I 617 W/m 28,2 km/h (4 Bft)
24.08.2014 15:20 19,7 C 18,9 C 55 % 1017,4 hPa 0,0 l/m 2 min 0 min 2,7 UV-I 618 W/m 35,4 km/h (5 Bft)
24.08.2014 15:22 19,7 C 18,9 C 55 % 1017,5 hPa 0,0 l/m 2 min 0 min 2,7 UV-I 623 W/m 35,4 km/h (5 Bft)
24.08.2014 15:24 19,8 C 18,9 C 59 % 1017,5 hPa 0,0 l/m 2 min 0 min 2,7 UV-I 628 W/m 24,7 km/h (4 Bft)
24.08.2014 15:26 20,0 C 18,9 C 57 % 1017,4 hPa 0,0 l/m 2 min 0 min 2,7 UV-I 642 W/m 31,7 km/h (5 Bft)
24.08.2014 15:28 20,1 C 19,4 C 60 % 1017,4 hPa 0,0 l/m 2 min 0 min 2,7 UV-I 650 W/m 21,3 km/h (4 Bft)
24.08.2014 15:30 20,4 C 19,4 C 59 % 1017,4 hPa 0,0 l/m 2 min 0 min 2,6 UV-I 635 W/m 21,3 km/h (4 Bft)
24.08.2014 15:32 20,4 C 19,4 C 57 % 1017,4 hPa 0,0 l/m 2 min 0 min 2,3 UV-I 555 W/m 46,0 km/h (6 Bft)
24.08.2014 15:34 20,2 C 18,9 C 57 % 1017,4 hPa 0,0 l/m 0 min 0 min 2,1 UV-I 227 W/m 35,4 km/h (5 Bft)
24.08.2014 15:36 20,1 C 18,9 C 55 % 1017,4 hPa 0,0 l/m 2 min 0 min 1,9 UV-I 435 W/m 31,7 km/h (5 Bft)
24.08.2014 15:38 19,9 C 19,4 C 57 % 1017,5 hPa 0,0 l/m 2 min 0 min 2,4 UV-I 683 W/m 31,7 km/h (5 Bft)
24.08.2014 15:40 20,2 C 19,4 C 58 % 1017,5 hPa 0,0 l/m 2 min 0 min 2,5 UV-I 682 W/m 49,5 km/h (6 Bft)
24.08.2014 15:42 20,3 C 19,4 C 56 % 1017,5 hPa 0,0 l/m 2 min 0 min 2,1 UV-I 680 W/m 35,4 km/h (5 Bft)
24.08.2014 15:44 19,9 C 19,4 C 54 % 1017,4 hPa 0,0 l/m 2 min 0 min 2,3 UV-I 666 W/m 53,0 km/h (7 Bft)
24.08.2014 15:46 19,6 C 18,9 C 56 % 1017,5 hPa 0,0 l/m 2 min 0 min 1,9 UV-I 659 W/m 38,9 km/h (6 Bft)
24.08.2014 15:48 19,3 C 18,3 C 57 % 1017,5 hPa 0,0 l/m 2 min 0 min 1,4 UV-I 438 W/m 46,0 km/h (6 Bft)
24.08.2014 15:50 19,1 C 18,3 C 58 % 1017,5 hPa 0,0 l/m 0 min 0 min 1,5 UV-I 227 W/m 31,7 km/h (5 Bft)
24.08.2014 15:52 19,0 C 18,3 C 59 % 1017,5 hPa 0,0 l/m 0 min 0 min 1,0 UV-I 194 W/m 28,2 km/h (4 Bft)
24.08.2014 15:54 18,8 C 17,8 C 59 % 1017,6 hPa 0,0 l/m 0 min 0 min 0,9 UV-I 167 W/m 42,4 km/h (6 Bft)
24.08.2014 15:56 18,5 C 17,2 C 62 % 1017,6 hPa 0,0 l/m 0 min 0 min 0,7 UV-I 145 W/m 35,4 km/h (5 Bft)
24.08.2014 15:58 18,0 C 16,7 C 65 % 1017,7 hPa 0,0 l/m 0 min 0 min 0,5 UV-I 127 W/m 42,4 km/h (6 Bft)
24.08.2014 16:00 17,4 C 16,1 C 66 % 1017,8 hPa 0,0 l/m 0 min 0 min 0,1 UV-I 115 W/m 46,0 km/h (6 Bft)
24.08.2014 16:02 17,0 C 16,1 C 68 % 1017,8 hPa 0,0 l/m 0 min 0 min 0,3 UV-I 180 W/m 49,5 km/h (6 Bft)
24.08.2014 16:04 16,7 C 16,1 C 69 % 1017,8 hPa 0,0 l/m 2 min 0 min 0,1 UV-I 368 W/m 46,0 km/h (6 Bft)
24.08.2014 16:06 16,4 C 15,6 C 69 % 1017,8 hPa 0,0 l/m 0 min 0 min 0,0 UV-I 165 W/m 42,4 km/h (6 Bft)
24.08.2014 16:08 16,3 C 15,6 C 70 % 1017,8 hPa 0,0 l/m 0 min 0 min 0,3 UV-I 170 W/m 35,4 km/h (5 Bft)
24.08.2014 16:10 16,2 C 15,6 C 70 % 1017,9 hPa 0,0 l/m 0 min 2 min 0,1 UV-I 167 W/m 42,4 km/h (6 Bft)
24.08.2014 16:12 16,1 C 15,6 C 71 % 1017,9 hPa 0,0 l/m 0 min 0 min 0,0 UV-I 151 W/m 49,5 km/h (6 Bft)
24.08.2014 16:14 15,9 C 15,6 C 71 % 1017,9 hPa 0,0 l/m 0 min 0 min 0,0 UV-I 123 W/m 56,5 km/h (7 Bft)
24.08.2014 16:16 15,8 C 15,0 C 71 % 1018,0 hPa 0,0 l/m 0 min 0 min 0,0 UV-I 107 W/m 35,4 km/h (5 Bft)
24.08.2014 16:18 15,8 C 15,0 C 72 % 1017,9 hPa 0,0 l/m 0 min 0 min 0,0 UV-I 109 W/m 31,7 km/h (5 Bft)
24.08.2014 16:20 15,7 C 15,0 C 72 % 1018,0 hPa 0,0 l/m 0 min 0 min 0,0 UV-I 125 W/m 31,7 km/h (5 Bft)
24.08.2014 16:22 15,7 C 15,0 C 72 % 1018,0 hPa 0,0 l/m 0 min 0 min 0,0 UV-I 149 W/m 38,9 km/h (6 Bft)
24.08.2014 16:24 15,7 C 15,0 C 72 % 1018,0 hPa 0,0 l/m 0 min 0 min 0,0 UV-I 163 W/m 38,9 km/h (6 Bft)
24.08.2014 16:26 15,7 C 15,0 C 71 % 1018,0 hPa 0,0 l/m 0 min 0 min 0,3 UV-I 170 W/m 35,4 km/h (5 Bft)
24.08.2014 16:28 15,7 C 15,0 C 71 % 1018,1 hPa 0,0 l/m 0 min 0 min 0,5 UV-I 180 W/m 31,7 km/h (5 Bft)
24.08.2014 16:30 15,7 C 15,6 C 72 % 1018,1 hPa 0,0 l/m 0 min 0 min 0,6 UV-I 200 W/m 42,4 km/h (6 Bft)
24.08.2014 16:32 15,7 C 15,6 C 71 % 1018,0 hPa 0,0 l/m 0 min 0 min 0,7 UV-I 208 W/m 46,0 km/h (6 Bft)
24.08.2014 16:34 15,8 C 15,6 C 70 % 1018,0 hPa 0,0 l/m 0 min 0 min 0,7 UV-I 206 W/m 49,5 km/h (6 Bft)
24.08.2014 16:36 15,8 C 15,6 C 70 % 1018,2 hPa 0,0 l/m 0 min 0 min 0,7 UV-I 207 W/m 42,4 km/h (6 Bft)
24.08.2014 16:38 15,9 C 15,6 C 71 % 1018,2 hPa 0,0 l/m 0 min 0 min 0,7 UV-I 220 W/m 38,9 km/h (6 Bft)
24.08.2014 16:40 16,0 C 15,6 C 71 % 1018,2 hPa 0,0 l/m 0 min 0 min 0,7 UV-I 217 W/m 17,7 km/h (3 Bft)
24.08.2014 16:42 16,1 C 15,6 C 71 % 1018,1 hPa 0,0 l/m 0 min 0 min 0,5 UV-I 178 W/m 28,2 km/h (4 Bft)
24.08.2014 16:44 16,2 C 15,6 C 70 % 1018,2 hPa 0,0 l/m 0 min 0 min 0,0 UV-I 128 W/m 31,7 km/h (5 Bft)
24.08.2014 16:46 16,1 C 15,6 C 70 % 1018,2 hPa 0,0 l/m 0 min 0 min 0,0 UV-I 96 W/m 31,7 km/h (5 Bft)
24.08.2014 16:48 16,1 C 15,0 C 71 % 1018,2 hPa 0,0 l/m 0 min 0 min 0,0 UV-I 84 W/m 21,3 km/h (4 Bft)
24.08.2014 16:50 16,0 C 15,0 C 72 % 1018,3 hPa 0,0 l/m 0 min 0 min 0,0 UV-I 74 W/m 24,7 km/h (4 Bft)
24.08.2014 16:52 15,9 C 15,0 C 71 % 1018,3 hPa 0,0 l/m 0 min 0 min 0,0 UV-I 63 W/m 31,7 km/h (5 Bft)
24.08.2014 16:54 15,8 C 14,4 C 71 % 1018,3 hPa 0,0 l/m 0 min 2 min 0,0 UV-I 55 W/m 46,0 km/h (6 Bft)
24.08.2014 16:56 15,7 C 13,9 C 73 % 1018,4 hPa 0,0 l/m 0 min 2 min 0,0 UV-I 51 W/m 31,7 km/h (5 Bft)
24.08.2014 16:58 15,6 C 13,3 C 75 % 1018,3 hPa 0,0 l/m 0 min 2 min 0,0 UV-I 48 W/m 31,7 km/h (5 Bft)
24.08.2014 17:00 15,4 C 12,8 C 76 % 1018,4 hPa 0,0 l/m 0 min 2 min 0,0 UV-I 47 W/m 38,9 km/h (6 Bft)
24.08.2014 17:02 15,2 C 12,8 C 79 % 1018,4 hPa 0,0 l/m 0 min 2 min 0,0 UV-I 48 W/m 28,2 km/h (4 Bft)
24.08.2014 17:04 15,0 C 12,8 C 78 % 1018,4 hPa 0,0 l/m 0 min 2 min 0,0 UV-I 50 W/m 24,7 km/h (4 Bft)
24.08.2014 17:06 14,8 C 12,2 C 80 % 1018,4 hPa 0,0 l/m 0 min 2 min 0,0 UV-I 50 W/m 24,7 km/h (4 Bft)
24.08.2014 17:08 14,7 C 12,2 C 82 % 1018,5 hPa 0,0 l/m 0 min 2 min 0,0 UV-I 50 W/m 21,3 km/h (4 Bft)
24.08.2014 17:10 14,4 C 12,2 C 82 % 1018,4 hPa 0,0 l/m 0 min 2 min 0,0 UV-I 54 W/m 28,2 km/h (4 Bft)
24.08.2014 17:12 14,2 C 12,2 C 83 % 1018,4 hPa 0,0 l/m 0 min 2 min 0,0 UV-I 56 W/m 31,7 km/h (5 Bft)
24.08.2014 17:14 14,2 C 11,7 C 84 % 1018,5 hPa 0,0 l/m 0 min 2 min 0,0 UV-I 57 W/m 31,7 km/h (5 Bft)
24.08.2014 17:16 13,9 C 11,7 C 85 % 1018,5 hPa 0,0 l/m 0 min 2 min 0,0 UV-I 52 W/m 24,7 km/h (4 Bft)
24.08.2014 17:18 13,8 C 11,7 C 86 % 1018,5 hPa 0,0 l/m 0 min 2 min 0,0 UV-I 46 W/m 35,4 km/h (5 Bft)
24.08.2014 17:20 13,8 C 11,7 C 87 % 1018,5 hPa 0,0 l/m 0 min 2 min 0,0 UV-I 42 W/m 21,3 km/h (4 Bft)
24.08.2014 17:22 13,7 C 11,7 C 87 % 1018,6 hPa 0,0 l/m 0 min 2 min 0,0 UV-I 42 W/m 24,7 km/h (4 Bft)
24.08.2014 17:24 13,7 C 11,7 C 87 % 1018,5 hPa 0,0 l/m 0 min 2 min 0,0 UV-I 40 W/m 14,2 km/h (3 Bft)
24.08.2014 17:26 13,6 C 11,7 C 88 % 1018,5 hPa 0,2 l/m 0 min 2 min 0,0 UV-I 40 W/m 7,1 km/h (2 Bft)
24.08.2014 17:28 13,6 C 11,7 C 89 % 1018,5 hPa 0,0 l/m 0 min 2 min 0,0 UV-I 40 W/m 3,5 km/h (1 Bft)
24.08.2014 17:30 13,6 C 11,7 C 89 % 1018,5 hPa 0,0 l/m 0 min 2 min 0,0 UV-I 39 W/m 7,1 km/h (2 Bft)
24.08.2014 17:32 13,4 C 11,7 C 90 % 1018,5 hPa 0,0 l/m 0 min 2 min 0,0 UV-I 33 W/m 10,7 km/h (2 Bft)
24.08.2014 17:34 13,3 C 11,7 C 89 % 1018,5 hPa 0,0 l/m 0 min 2 min 0,0 UV-I 27 W/m 10,7 km/h (2 Bft)
24.08.2014 17:36 13,3 C 11,7 C 90 % 1018,5 hPa 0,0 l/m 0 min 2 min 0,0 UV-I 28 W/m 7,1 km/h (2 Bft)
24.08.2014 17:38 13,2 C 11,7 C 90 % 1018,4 hPa 0,0 l/m 0 min 2 min 0,0 UV-I 33 W/m 0,0 km/h (0 Bft)
24.08.2014 17:40 13,2 C 11,7 C 90 % 1018,4 hPa 0,0 l/m 0 min 0 min 0,0 UV-I 40 W/m 0,0 km/h (0 Bft)
24.08.2014 17:42 13,2 C 11,7 C 90 % 1018,4 hPa 0,0 l/m 0 min 0 min 0,0 UV-I 50 W/m 10,7 km/h (2 Bft)
24.08.2014 17:44 13,2 C 11,7 C 90 % 1018,4 hPa 0,0 l/m 0 min 0 min 0,0 UV-I 60 W/m 10,7 km/h (2 Bft)
24.08.2014 17:46 13,2 C 11,7 C 91 % 1018,3 hPa 0,0 l/m 0 min 0 min 0,0 UV-I 63 W/m 0,0 km/h (0 Bft)
24.08.2014 17:48 13,3 C 11,7 C 91 % 1018,4 hPa 0,0 l/m 0 min 0 min 0,0 UV-I 61 W/m 7,1 km/h (2 Bft)
24.08.2014 17:50 13,3 C 11,7 C 91 % 1018,3 hPa 0,0 l/m 0 min 0 min 0,0 UV-I 55 W/m 3,5 km/h (1 Bft)
24.08.2014 17:52 13,4 C 11,7 C 91 % 1018,3 hPa 0,0 l/m 0 min 0 min 0,0 UV-I 50 W/m 0,0 km/h (0 Bft)
24.08.2014 17:54 13,4 C 11,7 C 92 % 1018,3 hPa 0,0 l/m 0 min 0 min 0,0 UV-I 46 W/m 0,0 km/h (0 Bft)
24.08.2014 17:56 13,3 C 11,7 C 92 % 1018,3 hPa 0,0 l/m 0 min 0 min 0,0 UV-I 41 W/m 0,0 km/h (0 Bft)
24.08.2014 17:58 13,2 C 11,7 C 92 % 1018,3 hPa 0,0 l/m 0 min 0 min 0,0 UV-I 40 W/m 10,7 km/h (2 Bft)
24.08.2014 18:00 13,2 C 11,7 C 91 % 1018,3 hPa 0,0 l/m 0 min 0 min 0,0 UV-I 41 W/m 7,1 km/h (2 Bft)
24.08.2014 18:02 13,2 C 11,7 C 92 % 1018,2 hPa 0,0 l/m 0 min 0 min 0,0 UV-I 47 W/m 0,0 km/h (0 Bft)
24.08.2014 18:06 13,1 C 11,7 C 92 % 1018,2 hPa 0,0 l/m 0 min 0 min 0,0 UV-I 54 W/m 7,1 km/h (2 Bft)
24.08.2014 18:08 13,2 C 11,7 C 92 % 1018,2 hPa 0,0 l/m 0 min 0 min 0,0 UV-I 61 W/m 0,0 km/h (0 Bft)
24.08.2014 18:10 13,2 C 11,7 C 92 % 1018,1 hPa 0,0 l/m 0 min 0 min 0,0 UV-I 69 W/m 0,0 km/h (0 Bft)
24.08.2014 18:12 13,2 C 11,7 C 92 % 1018,0 hPa 0,0 l/m 0 min 0 min 0,0 UV-I 76 W/m 0,0 km/h (0 Bft)
24.08.2014 18:14 13,3 C 11,7 C 92 % 1018,0 hPa 0,0 l/m 0 min 0 min 0,0 UV-I 79 W/m 0,0 km/h (0 Bft)
24.08.2014 18:16 13,3 C 12,2 C 92 % 1018,0 hPa 0,0 l/m 0 min 0 min 0,0 UV-I 81 W/m 0,0 km/h (0 Bft)
24.08.2014 18:18 13,4 C 12,2 C 92 % 1018,0 hPa 0,0 l/m 0 min 0 min 0,0 UV-I 84 W/m 0,0 km/h (0 Bft)
24.08.2014 18:20 13,4 C 12,2 C 92 % 1018,0 hPa 0,0 l/m 0 min 0 min 0,0 UV-I 84 W/m 0,0 km/h (0 Bft)
24.08.2014 18:22 13,4 C 12,2 C 92 % 1017,9 hPa 0,0 l/m 0 min 0 min 0,0 UV-I 77 W/m 0,0 km/h (0 Bft)
24.08.2014 18:24 13,5 C 12,2 C 92 % 1018,0 hPa 0,0 l/m 0 min 0 min 0,0 UV-I 68 W/m 0,0 km/h (0 Bft)
24.08.2014 18:26 13,6 C 12,2 C 91 % 1018,0 hPa 0,0 l/m 0 min 0 min 0,0 UV-I 56 W/m 0,0 km/h (0 Bft)
24.08.2014 18:28 13,6 C 12,2 C 91 % 1018,0 hPa 0,0 l/m 0 min 0 min 0,0 UV-I 50 W/m 0,0 km/h (0 Bft)
24.08.2014 18:30 13,6 C 11,7 C 91 % 1018,0 hPa 0,0 l/m 0 min 0 min 0,0 UV-I 49 W/m 0,0 km/h (0 Bft)
24.08.2014 18:32 13,6 C 11,7 C 90 % 1017,9 hPa 0,0 l/m 0 min 0 min 0,0 UV-I 46 W/m 0,0 km/h (0 Bft)
24.08.2014 18:34 13,6 C 11,7 C 90 % 1017,9 hPa 0,0 l/m 0 min 0 min 0,0 UV-I 42 W/m 0,0 km/h (0 Bft)
24.08.2014 18:36 13,6 C 11,7 C 90 % 1017,9 hPa 0,0 l/m 0 min 0 min 0,0 UV-I 42 W/m 0,0 km/h (0 Bft)
24.08.2014 18:38 13,6 C 11,7 C 89 % 1017,9 hPa 0,0 l/m 0 min 0 min 0,0 UV-I 42 W/m 0,0 km/h (0 Bft)
24.08.2014 18:40 13,6 C 11,7 C 89 % 1017,9 hPa 0,0 l/m 0 min 0 min 0,0 UV-I 40 W/m 0,0 km/h (0 Bft)
24.08.2014 18:42 13,6 C 11,7 C 89 % 1017,9 hPa 0,0 l/m 0 min 0 min 0,0 UV-I 40 W/m 0,0 km/h (0 Bft)
24.08.2014 18:44 13,7 C 11,7 C 89 % 1017,9 hPa 0,0 l/m 0 min 0 min 0,0 UV-I 40 W/m 0,0 km/h (0 Bft)
24.08.2014 18:46 13,6 C 11,7 C 89 % 1017,9 hPa 0,0 l/m 0 min 0 min 0,0 UV-I 42 W/m 0,0 km/h (0 Bft)
24.08.2014 18:48 13,6 C 11,7 C 89 % 1017,8 hPa 0,0 l/m 0 min 0 min 0,0 UV-I 44 W/m 0,0 km/h (0 Bft)
24.08.2014 18:50 13,6 C 11,7 C 89 % 1017,7 hPa 0,0 l/m 0 min 0 min 0,0 UV-I 49 W/m 0,0 km/h (0 Bft)
24.08.2014 18:52 13,6 C 12,2 C 89 % 1017,7 hPa 0,0 l/m 0 min 0 min 0,0 UV-I 55 W/m 0,0 km/h (0 Bft)
24.08.2014 18:54 13,7 C 12,2 C 89 % 1017,6 hPa 0,0 l/m 0 min 0 min 0,0 UV-I 59 W/m 0,0 km/h (0 Bft)
24.08.2014 18:56 13,7 C 12,2 C 89 % 1017,6 hPa 0,0 l/m 0 min 0 min 0,0 UV-I 77 W/m 0,0 km/h (0 Bft)
24.08.2014 18:58 13,8 C 12,2 C 88 % 1017,6 hPa 0,0 l/m 0 min 0 min 0,0 UV-I 107 W/m 0,0 km/h (0 Bft)
24.08.2014 19:00 13,9 C 12,2 C 88 % 1017,6 hPa 0,0 l/m 0 min 0 min 0,0 UV-I 96 W/m 0,0 km/h (0 Bft)
24.08.2014 19:02 13,9 C 12,2 C 88 % 1017,6 hPa 0,0 l/m 2 min 0 min 0,0 UV-I 117 W/m 0,0 km/h (0 Bft)
24.08.2014 19:04 14,1 C 12,8 C 87 % 1017,7 hPa 0,0 l/m 2 min 0 min 0,0 UV-I 135 W/m 0,0 km/h (0 Bft)
24.08.2014 19:06 14,2 C 12,8 C 87 % 1017,7 hPa 0,0 l/m 2 min 0 min 0,0 UV-I 156 W/m 0,0 km/h (0 Bft)
24.08.2014 19:08 14,3 C 12,8 C 86 % 1017,7 hPa 0,0 l/m 2 min 0 min 0,0 UV-I 148 W/m 0,0 km/h (0 Bft)
24.08.2014 19:10 14,4 C 12,8 C 86 % 1017,6 hPa 0,0 l/m 2 min 0 min 0,0 UV-I 160 W/m 0,0 km/h (0 Bft)
24.08.2014 19:12 14,6 C 12,8 C 87 % 1017,7 hPa 0,0 l/m 2 min 0 min 0,0 UV-I 160 W/m 0,0 km/h (0 Bft)
24.08.2014 19:14 14,6 C 12,8 C 87 % 1017,7 hPa 0,0 l/m 2 min 0 min 0,0 UV-I 106 W/m 0,0 km/h (0 Bft)
24.08.2014 19:16 14,6 C 12,8 C 86 % 1017,7 hPa 0,0 l/m 2 min 0 min 0,0 UV-I 115 W/m 0,0 km/h (0 Bft)
24.08.2014 19:18 14,5 C 12,8 C 84 % 1017,7 hPa 0,0 l/m 2 min 0 min 0,0 UV-I 104 W/m 0,0 km/h (0 Bft)
24.08.2014 19:20 14,4 C 12,8 C 83 % 1017,7 hPa 0,0 l/m 0 min 0 min 0,0 UV-I 92 W/m 3,5 km/h (1 Bft)
24.08.2014 19:22 14,5 C 12,8 C 83 % 1017,7 hPa 0,0 l/m 0 min 0 min 0,0 UV-I 73 W/m 0,0 km/h (0 Bft)
24.08.2014 19:24 14,4 C 12,8 C 82 % 1017,8 hPa 0,0 l/m 0 min 0 min 0,0 UV-I 74 W/m 0,0 km/h (0 Bft)
24.08.2014 19:26 14,4 C 12,2 C 83 % 1017,8 hPa 0,0 l/m 0 min 0 min 0,0 UV-I 69 W/m 0,0 km/h (0 Bft)
24.08.2014 19:28 14,4 C 12,2 C 84 % 1017,8 hPa 0,0 l/m 0 min 0 min 0,0 UV-I 62 W/m 0,0 km/h (0 Bft)
24.08.2014 19:30 14,3 C 12,2 C 84 % 1017,7 hPa 0,0 l/m 0 min 0 min 0,0 UV-I 60 W/m 0,0 km/h (0 Bft)
24.08.2014 19:32 14,3 C 12,2 C 84 % 1017,7 hPa 0,0 l/m 0 min 0 min 0,0 UV-I 57 W/m 0,0 km/h (0 Bft)
24.08.2014 19:34 14,3 C 12,2 C 85 % 1017,7 hPa 0,0 l/m 0 min 0 min 0,0 UV-I 53 W/m 0,0 km/h (0 Bft)
24.08.2014 19:36 14,2 C 12,2 C 86 % 1017,7 hPa 0,0 l/m 0 min 0 min 0,0 UV-I 48 W/m 0,0 km/h (0 Bft)
24.08.2014 19:38 14,2 C 12,2 C 86 % 1017,7 hPa 0,0 l/m 0 min 0 min 0,0 UV-I 42 W/m 0,0 km/h (0 Bft)
24.08.2014 19:40 14,2 C 12,2 C 87 % 1017,8 hPa 0,0 l/m 0 min 0 min 0,0 UV-I 39 W/m 0,0 km/h (0 Bft)
24.08.2014 19:42 14,2 C 12,2 C 87 % 1017,8 hPa 0,0 l/m 0 min 0 min 0,0 UV-I 36 W/m 0,0 km/h (0 Bft)
24.08.2014 19:44 14,2 C 12,2 C 87 % 1017,8 hPa 0,0 l/m 0 min 0 min 0,0 UV-I 34 W/m 0,0 km/h (0 Bft)
24.08.2014 19:46 14,1 C 12,2 C 87 % 1017,8 hPa 0,0 l/m 0 min 0 min 0,0 UV-I 33 W/m 0,0 km/h (0 Bft)
24.08.2014 19:48 14,0 C 11,7 C 87 % 1017,8 hPa 0,0 l/m 0 min 0 min 0,0 UV-I 32 W/m 0,0 km/h (0 Bft)
24.08.2014 19:50 13,9 C 11,7 C 87 % 1017,9 hPa 0,0 l/m 0 min 0 min 0,0 UV-I 30 W/m 0,0 km/h (0 Bft)
24.08.2014 19:52 13,9 C 11,7 C 88 % 1017,8 hPa 0,0 l/m 0 min 0 min 0,0 UV-I 28 W/m 0,0 km/h (0 Bft)
24.08.2014 19:54 13,8 C 11,7 C 88 % 1017,8 hPa 0,0 l/m 0 min 0 min 0,0 UV-I 28 W/m 0,0 km/h (0 Bft)
24.08.2014 19:56 13,8 C 11,7 C 88 % 1017,9 hPa 0,0 l/m 0 min 0 min 0,0 UV-I 27 W/m 0,0 km/h (0 Bft)
24.08.2014 19:58 13,7 C 11,7 C 88 % 1017,9 hPa 0,0 l/m 0 min 0 min 0,0 UV-I 25 W/m 0,0 km/h (0 Bft)
24.08.2014 20:00 13,7 C 11,7 C 89 % 1017,9 hPa 0,0 l/m 0 min 0 min 0,0 UV-I 24 W/m 0,0 km/h (0 Bft)
24.08.2014 20:02 13,7 C 11,7 C 89 % 1017,9 hPa 0,0 l/m 0 min 0 min 0,0 UV-I 21 W/m 0,0 km/h (0 Bft)
24.08.2014 20:04 13,6 C 11,7 C 89 % 1017,9 hPa 0,0 l/m 0 min 0 min 0,0 UV-I 19 W/m 0,0 km/h (0 Bft)
24.08.2014 20:06 13,6 C 11,7 C 89 % 1018,0 hPa 0,0 l/m 0 min 0 min 0,0 UV-I 18 W/m 0,0 km/h (0 Bft)
24.08.2014 20:08 13,6 C 11,7 C 90 % 1017,9 hPa 0,0 l/m 0 min 0 min 0,0 UV-I 16 W/m 0,0 km/h (0 Bft)
24.08.2014 20:10 13,5 C 11,7 C 90 % 1018,0 hPa 0,0 l/m 0 min 0 min 0,0 UV-I 16 W/m 0,0 km/h (0 Bft)
24.08.2014 20:12 13,4 C 11,7 C 90 % 1018,0 hPa 0,0 l/m 0 min 0 min 0,0 UV-I 15 W/m 0,0 km/h (0 Bft)
24.08.2014 20:14 13,4 C 11,7 C 90 % 1018,0 hPa 0,0 l/m 0 min 0 min 0,0 UV-I 14 W/m 0,0 km/h (0 Bft)
24.08.2014 20:16 13,3 C 11,7 C 90 % 1018,0 hPa 0,0 l/m 0 min 0 min 0,0 UV-I 13 W/m 0,0 km/h (0 Bft)
24.08.2014 20:18 13,3 C 11,7 C 90 % 1018,0 hPa 0,0 l/m 0 min 0 min 0,0 UV-I 12 W/m 0,0 km/h (0 Bft)
24.08.2014 20:20 13,3 C 11,7 C 90 % 1018,0 hPa 0,0 l/m 0 min 0 min 0,0 UV-I 12 W/m 0,0 km/h (0 Bft)
24.08.2014 20:22 13,3 C 11,7 C 90 % 1017,9 hPa 0,0 l/m 0 min 0 min 0,0 UV-I 12 W/m 0,0 km/h (0 Bft)
24.08.2014 20:24 13,2 C 11,7 C 90 % 1018,0 hPa 0,0 l/m 0 min 0 min 0,0 UV-I 11 W/m 0,0 km/h (0 Bft)
24.08.2014 20:26 13,2 C 11,7 C 90 % 1018,0 hPa 0,0 l/m 0 min 0 min 0,0 UV-I 11 W/m 3,5 km/h (1 Bft)
24.08.2014 20:28 13,2 C 11,7 C 90 % 1018,0 hPa 0,0 l/m 0 min 0 min 0,0 UV-I 9 W/m 0,0 km/h (0 Bft)
24.08.2014 20:30 13,2 C 11,7 C 91 % 1018,0 hPa 0,0 l/m 0 min 0 min 0,0 UV-I 9 W/m 0,0 km/h (0 Bft)
24.08.2014 20:32 13,2 C 11,7 C 91 % 1018,0 hPa 0,0 l/m 0 min 0 min 0,0 UV-I 7 W/m 0,0 km/h (0 Bft)
24.08.2014 20:34 13,1 C 11,7 C 91 % 1018,0 hPa 0,0 l/m 0 min 0 min 0,0 UV-I 0 W/m 0,0 km/h (0 Bft)
24.08.2014 20:36 13,1 C 11,7 C 91 % 1018,0 hPa 0,0 l/m 0 min 0 min 0,0 UV-I 0 W/m 0,0 km/h (0 Bft)
24.08.2014 20:38 13,0 C 11,7 C 90 % 1018,0 hPa 0,0 l/m 0 min 0 min 0,0 UV-I 0 W/m 0,0 km/h (0 Bft)
24.08.2014 20:40 12,9 C 11,1 C 90 % 1018,0 hPa 0,0 l/m 0 min 0 min 0,0 UV-I 0 W/m 0,0 km/h (0 Bft)
24.08.2014 20:42 12,9 C 11,1 C 90 % 1018,0 hPa 0,0 l/m 0 min 0 min 0,0 UV-I 0 W/m 3,5 km/h (1 Bft)
24.08.2014 20:44 12,9 C 11,1 C 90 % 1018,0 hPa 0,0 l/m 0 min 0 min 0,0 UV-I 0 W/m 0,0 km/h (0 Bft)
24.08.2014 20:46 12,8 C 11,1 C 90 % 1018,0 hPa 0,0 l/m 0 min 0 min 0,0 UV-I 0 W/m 0,0 km/h (0 Bft)
24.08.2014 20:48 12,8 C 11,1 C 90 % 1018,0 hPa 0,0 l/m 0 min 0 min 0,0 UV-I 0 W/m 0,0 km/h (0 Bft)
24.08.2014 20:50 12,8 C 11,1 C 90 % 1018,0 hPa 0,0 l/m 0 min 0 min 0,0 UV-I 0 W/m 0,0 km/h (0 Bft)
24.08.2014 20:52 12,7 C 10,6 C 90 % 1018,1 hPa 0,0 l/m 0 min 0 min 0,0 UV-I 0 W/m 0,0 km/h (0 Bft)
24.08.2014 20:54 12,7 C 10,6 C 91 % 1018,1 hPa 0,0 l/m 0 min 0 min 0,0 UV-I 0 W/m 3,5 km/h (1 Bft)
24.08.2014 20:56 12,7 C 10,6 C 90 % 1018,0 hPa 0,0 l/m 0 min 0 min 0,0 UV-I 0 W/m 0,0 km/h (0 Bft)
24.08.2014 20:58 12,6 C 10,6 C 91 % 1018,0 hPa 0,0 l/m 0 min 0 min 0,0 UV-I 0 W/m 0,0 km/h (0 Bft)
24.08.2014 21:00 12,6 C 10,6 C 91 % 1018,0 hPa 0,0 l/m 0 min 0 min 0,0 UV-I 0 W/m 0,0 km/h (0 Bft)
24.08.2014 21:02 12,5 C 10,6 C 91 % 1018,0 hPa 0,0 l/m 0 min 0 min 0,0 UV-I 0 W/m 0,0 km/h (0 Bft)
24.08.2014 21:04 12,4 C 10,6 C 91 % 1018,2 hPa 0,0 l/m 0 min 0 min 0,0 UV-I 0 W/m 0,0 km/h (0 Bft)
24.08.2014 21:06 12,4 C 10,6 C 91 % 1018,1 hPa 0,0 l/m 0 min 0 min 0,0 UV-I 0 W/m 0,0 km/h (0 Bft)
24.08.2014 21:08 12,3 C 10,6 C 91 % 1018,1 hPa 0,0 l/m 0 min 0 min 0,0 UV-I 0 W/m 0,0 km/h (0 Bft)
24.08.2014 21:10 12,3 C 10,6 C 92 % 1018,1 hPa 0,0 l/m 0 min 0 min 0,0 UV-I 0 W/m 0,0 km/h (0 Bft)
24.08.2014 21:12 12,2 C 10,6 C 92 % 1018,1 hPa 0,0 l/m 0 min 0 min 0,0 UV-I 0 W/m 0,0 km/h (0 Bft)
24.08.2014 21:14 12,1 C 10,6 C 92 % 1018,2 hPa 0,0 l/m 0 min 0 min 0,0 UV-I 0 W/m 0,0 km/h (0 Bft)
24.08.2014 21:16 12,1 C 10,0 C 92 % 1018,2 hPa 0,0 l/m 0 min 0 min 0,0 UV-I 0 W/m 0,0 km/h (0 Bft)
24.08.2014 21:18 12,0 C 10,0 C 92 % 1018,2 hPa 0,0 l/m 0 min 0 min 0,0 UV-I 0 W/m 0,0 km/h (0 Bft)
24.08.2014 21:20 11,9 C 10,0 C 93 % 1018,2 hPa 0,0 l/m 0 min 0 min 0,0 UV-I 0 W/m 0,0 km/h (0 Bft)
24.08.2014 21:22 11,9 C 10,0 C 93 % 1018,2 hPa 0,0 l/m 0 min 0 min 0,0 UV-I 0 W/m 3,5 km/h (1 Bft)
24.08.2014 21:24 11,9 C 10,0 C 93 % 1018,2 hPa 0,0 l/m 0 min 0 min 0,0 UV-I 0 W/m 0,0 km/h (0 Bft)
24.08.2014 21:26 11,8 C 10,0 C 93 % 1018,2 hPa 0,0 l/m 0 min 0 min 0,0 UV-I 0 W/m 0,0 km/h (0 Bft)
24.08.2014 21:28 11,8 C 10,0 C 93 % 1018,2 hPa 0,0 l/m 0 min 0 min 0,0 UV-I 0 W/m 0,0 km/h (0 Bft)
24.08.2014 21:30 11,8 C 10,0 C 93 % 1018,3 hPa 0,0 l/m 0 min 0 min 0,0 UV-I 0 W/m 3,5 km/h (1 Bft)
24.08.2014 21:32 11,8 C 10,0 C 93 % 1018,2 hPa 0,0 l/m 0 min 0 min 0,0 UV-I 0 W/m 0,0 km/h (0 Bft)
24.08.2014 21:34 11,8 C 10,0 C 93 % 1018,3 hPa 0,0 l/m 0 min 0 min 0,0 UV-I 0 W/m 3,5 km/h (1 Bft)
24.08.2014 21:36 11,8 C 10,0 C 93 % 1018,3 hPa 0,0 l/m 0 min 0 min 0,0 UV-I 0 W/m 3,5 km/h (1 Bft)
24.08.2014 21:38 11,9 C 10,0 C 93 % 1018,4 hPa 0,0 l/m 0 min 0 min 0,0 UV-I 0 W/m 7,1 km/h (2 Bft)
24.08.2014 21:40 11,9 C 10,0 C 93 % 1018,3 hPa 0,0 l/m 0 min 0 min 0,0 UV-I 0 W/m 7,1 km/h (2 Bft)
24.08.2014 21:42 11,9 C 10,0 C 93 % 1018,3 hPa 0,0 l/m 0 min 0 min 0,0 UV-I 0 W/m 0,0 km/h (0 Bft)
24.08.2014 21:44 11,9 C 10,0 C 93 % 1018,4 hPa 0,0 l/m 0 min 0 min 0,0 UV-I 0 W/m 14,2 km/h (3 Bft)
24.08.2014 21:46 11,9 C 10,0 C 93 % 1018,4 hPa 0,0 l/m 0 min 0 min 0,0 UV-I 0 W/m 14,2 km/h (3 Bft)
24.08.2014 21:48 11,9 C 10,0 C 93 % 1018,4 hPa 0,0 l/m 0 min 0 min 0,0 UV-I 0 W/m 7,1 km/h (2 Bft)
24.08.2014 21:50 11,9 C 10,0 C 93 % 1018,4 hPa 0,0 l/m 0 min 0 min 0,0 UV-I 0 W/m 0,0 km/h (0 Bft)
24.08.2014 21:52 11,8 C 10,0 C 93 % 1018,4 hPa 0,0 l/m 0 min 0 min 0,0 UV-I 0 W/m 0,0 km/h (0 Bft)
24.08.2014 21:54 11,7 C 10,0 C 92 % 1018,4 hPa 0,0 l/m 0 min 0 min 0,0 UV-I 0 W/m 0,0 km/h (0 Bft)
24.08.2014 21:56 11,7 C 10,0 C 93 % 1018,4 hPa 0,0 l/m 0 min 0 min 0,0 UV-I 0 W/m 3,5 km/h (1 Bft)
24.08.2014 21:58 11,7 C 10,0 C 93 % 1018,4 hPa 0,0 l/m 0 min 0 min 0,0 UV-I 0 W/m 0,0 km/h (0 Bft)
24.08.2014 22:00 11,7 C 10,0 C 93 % 1018,4 hPa 0,0 l/m 0 min 0 min 0,0 UV-I 0 W/m 0,0 km/h (0 Bft)
24.08.2014 22:02 11,7 C 10,0 C 93 % 1018,4 hPa 0,0 l/m 0 min 0 min 0,0 UV-I 0 W/m 0,0 km/h (0 Bft)
24.08.2014 22:04 11,6 C 10,0 C 93 % 1018,4 hPa 0,0 l/m 0 min 0 min 0,0 UV-I 0 W/m 0,0 km/h (0 Bft)
24.08.2014 22:06 11,6 C 10,0 C 93 % 1018,3 hPa 0,0 l/m 0 min 0 min 0,0 UV-I 0 W/m 0,0 km/h (0 Bft)
24.08.2014 22:08 11,5 C 9,4 C 93 % 1018,4 hPa 0,0 l/m 0 min 0 min 0,0 UV-I 0 W/m 0,0 km/h (0 Bft)
24.08.2014 22:10 11,5 C 9,4 C 93 % 1018,4 hPa 0,0 l/m 0 min 0 min 0,0 UV-I 0 W/m 0,0 km/h (0 Bft)
24.08.2014 22:12 11,5 C 9,4 C 94 % 1018,3 hPa 0,0 l/m 0 min 0 min 0,0 UV-I 0 W/m 0,0 km/h (0 Bft)
24.08.2014 22:14 11,5 C 9,4 C 94 % 1018,3 hPa 0,0 l/m 0 min 0 min 0,0 UV-I 0 W/m 0,0 km/h (0 Bft)
24.08.2014 22:16 11,5 C 9,4 C 94 % 1018,3 hPa 0,0 l/m 0 min 0 min 0,0 UV-I 0 W/m 0,0 km/h (0 Bft)
24.08.2014 22:18 11,4 C 9,4 C 94 % 1018,4 hPa 0,0 l/m 0 min 0 min 0,0 UV-I 0 W/m 0,0 km/h (0 Bft)
24.08.2014 22:20 11,4 C 9,4 C 94 % 1018,4 hPa 0,0 l/m 0 min 0 min 0,0 UV-I 0 W/m 10,7 km/h (2 Bft)
24.08.2014 22:22 11,4 C 9,4 C 94 % 1018,4 hPa 0,0 l/m 0 min 0 min 0,0 UV-I 0 W/m 0,0 km/h (0 Bft)
24.08.2014 22:24 11,3 C 9,4 C 94 % 1018,4 hPa 0,0 l/m 0 min 0 min 0,0 UV-I 0 W/m 0,0 km/h (0 Bft)
24.08.2014 22:26 11,3 C 9,4 C 94 % 1018,4 hPa 0,0 l/m 0 min 0 min 0,0 UV-I 0 W/m 0,0 km/h (0 Bft)
24.08.2014 22:28 11,3 C 9,4 C 94 % 1018,4 hPa 0,0 l/m 0 min 0 min 0,0 UV-I 0 W/m 0,0 km/h (0 Bft)
24.08.2014 22:30 11,3 C 9,4 C 94 % 1018,4 hPa 0,0 l/m 0 min 0 min 0,0 UV-I 0 W/m 0,0 km/h (0 Bft)
24.08.2014 22:32 11,3 C 9,4 C 94 % 1018,4 hPa 0,0 l/m 0 min 0 min 0,0 UV-I 0 W/m 0,0 km/h (0 Bft)
24.08.2014 22:33 11,3 C 9,4 C 94 % 1018,4 hPa 0,0 l/m 0 min 0 min 0,0 UV-I 0 W/m 0,0 km/h (0 Bft)
24.08.2014 22:34 11,3 C 9,4 C 94 % 1018,4 hPa 0,0 l/m 0 min 0 min 0,0 UV-I 0 W/m 0,0 km/h (0 Bft)
24.08.2014 22:36 11,3 C 9,4 C 94 % 1018,4 hPa 0,0 l/m 0 min 0 min 0,0 UV-I 0 W/m 0,0 km/h (0 Bft)
24.08.2014 22:38 11,2 C 9,4 C 94 % 1018,4 hPa 0,0 l/m 0 min 0 min 0,0 UV-I 0 W/m 0,0 km/h (0 Bft)
24.08.2014 22:40 11,2 C 9,4 C 94 % 1018,4 hPa 0,0 l/m 0 min 0 min 0,0 UV-I 0 W/m 0,0 km/h (0 Bft)
24.08.2014 22:42 11,2 C 9,4 C 94 % 1018,4 hPa 0,0 l/m 0 min 0 min 0,0 UV-I 0 W/m 0,0 km/h (0 Bft)
24.08.2014 22:44 11,1 C 9,4 C 94 % 1018,4 hPa 0,0 l/m 0 min 0 min 0,0 UV-I 0 W/m 3,5 km/h (1 Bft)
24.08.2014 22:46 11,1 C 9,4 C 94 % 1018,4 hPa 0,0 l/m 0 min 0 min 0,0 UV-I 0 W/m 0,0 km/h (0 Bft)
24.08.2014 22:48 11,1 C 9,4 C 94 % 1018,3 hPa 0,0 l/m 0 min 0 min 0,0 UV-I 0 W/m 0,0 km/h (0 Bft)
24.08.2014 22:50 11,0 C 9,4 C 94 % 1018,3 hPa 0,0 l/m 0 min 0 min 0,0 UV-I 0 W/m 0,0 km/h (0 Bft)
24.08.2014 22:52 11,0 C 9,4 C 95 % 1018,3 hPa 0,0 l/m 0 min 0 min 0,0 UV-I 0 W/m 3,5 km/h (1 Bft)
24.08.2014 22:54 11,0 C 9,4 C 95 % 1018,2 hPa 0,0 l/m 0 min 0 min 0,0 UV-I 0 W/m 0,0 km/h (0 Bft)
24.08.2014 22:56 11,0 C 9,4 C 95 % 1018,2 hPa 0,0 l/m 0 min 0 min 0,0 UV-I 0 W/m 7,1 km/h (2 Bft)
24.08.2014 22:58 11,1 C 9,4 C 95 % 1018,2 hPa 0,0 l/m 0 min 0 min 0,0 UV-I 0 W/m 0,0 km/h (0 Bft)
24.08.2014 23:00 11,1 C 9,4 C 95 % 1018,2 hPa 0,0 l/m 0 min 0 min 0,0 UV-I 0 W/m 10,7 km/h (2 Bft)
24.08.2014 23:02 11,1 C 9,4 C 95 % 1018,2 hPa 0,0 l/m 0 min 0 min 0,0 UV-I 0 W/m 7,1 km/h (2 Bft)
24.08.2014 23:04 11,1 C 9,4 C 95 % 1018,2 hPa 0,0 l/m 0 min 0 min 0,0 UV-I 0 W/m 0,0 km/h (0 Bft)
24.08.2014 23:06 11,1 C 9,4 C 95 % 1018,2 hPa 0,0 l/m 0 min 0 min 0,0 UV-I 0 W/m 0,0 km/h (0 Bft)
24.08.2014 23:08 10,9 C 9,4 C 95 % 1018,2 hPa 0,0 l/m 0 min 0 min 0,0 UV-I 0 W/m 0,0 km/h (0 Bft)
24.08.2014 23:10 10,9 C 9,4 C 95 % 1018,2 hPa 0,0 l/m 0 min 0 min 0,0 UV-I 0 W/m 0,0 km/h (0 Bft)
24.08.2014 23:12 10,9 C 9,4 C 95 % 1018,3 hPa 0,0 l/m 0 min 0 min 0,0 UV-I 0 W/m 0,0 km/h (0 Bft)
24.08.2014 23:14 10,9 C 9,4 C 95 % 1018,3 hPa 0,0 l/m 0 min 0 min 0,0 UV-I 0 W/m 0,0 km/h (0 Bft)
24.08.2014 23:16 10,8 C 9,4 C 95 % 1018,2 hPa 0,0 l/m 0 min 0 min 0,0 UV-I 0 W/m 10,7 km/h (2 Bft)
24.08.2014 23:18 10,8 C 9,4 C 95 % 1018,3 hPa 0,0 l/m 0 min 0 min 0,0 UV-I 0 W/m 0,0 km/h (0 Bft)
24.08.2014 23:20 10,8 C 9,4 C 95 % 1018,2 hPa 0,0 l/m 0 min 0 min 0,0 UV-I 0 W/m 0,0 km/h (0 Bft)
24.08.2014 23:22 10,8 C 9,4 C 95 % 1018,2 hPa 0,0 l/m 0 min 0 min 0,0 UV-I 0 W/m 0,0 km/h (0 Bft)
24.08.2014 23:24 10,7 C 9,4 C 95 % 1018,2 hPa 0,0 l/m 0 min 0 min 0,0 UV-I 0 W/m 0,0 km/h (0 Bft)
24.08.2014 23:26 10,7 C 9,4 C 95 % 1018,2 hPa 0,0 l/m 0 min 0 min 0,0 UV-I 0 W/m 0,0 km/h (0 Bft)
24.08.2014 23:28 10,7 C 9,4 C 95 % 1018,2 hPa 0,0 l/m 0 min 0 min 0,0 UV-I 0 W/m 0,0 km/h (0 Bft)
24.08.2014 23:30 10,7 C 9,4 C 95 % 1018,1 hPa 0,0 l/m 0 min 0 min 0,0 UV-I 0 W/m 0,0 km/h (0 Bft)
24.08.2014 23:32 10,7 C 9,4 C 95 % 1018,1 hPa 0,0 l/m 0 min 0 min 0,0 UV-I 0 W/m 0,0 km/h (0 Bft)
24.08.2014 23:34 10,7 C 9,4 C 96 % 1018,2 hPa 0,0 l/m 0 min 0 min 0,0 UV-I 0 W/m 0,0 km/h (0 Bft)
24.08.2014 23:36 10,7 C 9,4 C 96 % 1018,1 hPa 0,0 l/m 0 min 0 min 0,0 UV-I 0 W/m 0,0 km/h (0 Bft)
24.08.2014 23:38 10,7 C 9,4 C 96 % 1018,2 hPa 0,0 l/m 0 min 0 min 0,0 UV-I 0 W/m 0,0 km/h (0 Bft)
24.08.2014 23:40 10,8 C 9,4 C 96 % 1018,2 hPa 0,0 l/m 0 min 0 min 0,0 UV-I 0 W/m 0,0 km/h (0 Bft)
24.08.2014 23:42 10,8 C 9,4 C 96 % 1018,2 hPa 0,0 l/m 0 min 0 min 0,0 UV-I 0 W/m 0,0 km/h (0 Bft)
24.08.2014 23:44 10,8 C 9,4 C 96 % 1018,2 hPa 0,0 l/m 0 min 0 min 0,0 UV-I 0 W/m 0,0 km/h (0 Bft)
24.08.2014 23:46 10,9 C 10,0 C 96 % 1018,2 hPa 0,0 l/m 0 min 0 min 0,0 UV-I 0 W/m 0,0 km/h (0 Bft)
24.08.2014 23:48 10,9 C 9,4 C 96 % 1018,2 hPa 0,0 l/m 0 min 0 min 0,0 UV-I 0 W/m 0,0 km/h (0 Bft)
24.08.2014 23:50 10,9 C 10,0 C 96 % 1018,2 hPa 0,0 l/m 0 min 0 min 0,0 UV-I 0 W/m 0,0 km/h (0 Bft)
24.08.2014 23:52 10,9 C 10,0 C 96 % 1018,2 hPa 0,0 l/m 0 min 0 min 0,0 UV-I 0 W/m 0,0 km/h (0 Bft)
24.08.2014 23:54 10,9 C 9,4 C 96 % 1018,2 hPa 0,0 l/m 0 min 0 min 0,0 UV-I 0 W/m 0,0 km/h (0 Bft)
24.08.2014 23:56 10,9 C 9,4 C 96 % 1018,2 hPa 0,0 l/m 0 min 0 min 0,0 UV-I 0 W/m 0,0 km/h (0 Bft)
24.08.2014 23:58 10,8 C 9,4 C 96 % 1018,2 hPa 0,0 l/m 0 min 0 min 0,0 UV-I 0 W/m 0,0 km/h (0 Bft)
_ Min-Zeit 06:46 05:14 15:44 01:28 - - - - - 01:12
Minimum _ 8,2 C 7,8 C 54 % 1015,4 hPa - - - - - 0,0 km/h (0 Bft)
_ Max-Zeit 00:00 14:04 23:34 11:14 17:26 07:04 01:12 13:20 12:44 14:18
Maximum _ 21,0 C 19,4 C 96 % 1018,6 hPa 0,2 l/m 2 min 2 min 3,7 UV-I 869 W/m 67,1 km/h
W (8 Bft)
Durchschnitt _ 12,9 C 11,9 C 84 % 1017,5 hPa #0,2 l/m #7:50 h #1:02 h 2,2 UV-I 330 W/m 16,9 km/h (3 Bft)
© 2014 W. Hausmann